Time,TemperatureF,DewpointF,PressureIn,WindDirection,WindDirectionDegrees,WindSpeedMPH,WindSpeedGustMPH,Humidity,HourlyPrecipIn,Conditions,Clouds,dailyrainin,SoftwareType,DateUTC
2013-10-04 00:00:00,43.9,43.3,30.41,SE,139,0.0,0.0,98,0.00,,,0.00,WUHU216DAVISVP2,2013-10-04 07:00:00,
2013-10-04 00:01:00,43.9,43.3,30.41,SE,139,0.0,0.0,98,0.00,,,0.00,WUHU216DAVISVP2,2013-10-04 07:01:00,
2013-10-04 00:02:00,43.8,43.2,30.41,SE,139,0.0,0.0,98,0.00,,,0.00,WUHU216DAVISVP2,2013-10-04 07:02:00,
2013-10-04 00:03:00,43.7,43.1,30.41,SE,139,0.0,0.0,98,0.00,,,0.00,WUHU216DAVISVP2,2013-10-04 07:03:00,
2013-10-04 00:04:00,43.7,43.1,30.41,SE,139,0.0,0.0,98,0.00,,,0.00,WUHU216DAVISVP2,2013-10-04 07:04:00,
2013-10-04 00:05:00,43.7,43.1,30.41,SE,138,0.0,0.0,98,0.00,,,0.00,WUHU216DAVISVP2,2013-10-04 07:05:00,
2013-10-04 00:06:00,43.7,43.1,30.41,SE,138,0.0,0.0,98,0.00,,,0.00,WUHU216DAVISVP2,2013-10-04 07:06:00,
2013-10-04 00:07:00,43.6,43.0,30.41,SE,139,0.0,0.0,98,0.00,,,0.00,WUHU216DAVISVP2,2013-10-04 07:07:00,
2013-10-04 00:09:00,43.6,43.0,30.41,SE,138,0.0,0.0,98,0.00,,,0.00,WUHU216DAVISVP2,2013-10-04 07:09:00,
2013-10-04 00:10:00,43.6,43.0,30.41,SE,139,0.0,0.0,98,0.00,,,0.00,WUHU216DAVISVP2,2013-10-04 07:10:00,
2013-10-04 00:11:00,43.5,42.9,30.41,SE,139,0.0,0.0,98,0.00,,,0.00,WUHU216DAVISVP2,2013-10-04 07:11:00,
2013-10-04 00:12:00,43.5,42.9,30.41,SE,139,0.0,0.0,98,0.00,,,0.00,WUHU216DAVISVP2,2013-10-04 07:12:00,
2013-10-04 00:14:00,43.6,43.0,30.41,SE,139,0.0,0.0,98,0.00,,,0.00,WUHU216DAVISVP2,2013-10-04 07:14:00,
2013-10-04 00:15:00,43.6,43.0,30.41,SE,139,0.0,0.0,98,0.00,,,0.00,WUHU216DAVISVP2,2013-10-04 07:15:00,
2013-10-04 00:16:00,43.6,43.1,30.41,SE,139,0.0,0.0,98,0.00,,,0.00,WUHU216DAVISVP2,2013-10-04 07:16:00,
2013-10-04 00:17:00,43.6,43.1,30.41,SE,139,0.0,0.0,98,0.00,,,0.00,WUHU216DAVISVP2,2013-10-04 07:17:00,
2013-10-04 00:19:00,43.5,43.0,30.41,SE,139,0.0,0.0,98,0.00,,,0.00,WUHU216DAVISVP2,2013-10-04 07:19:00,
2013-10-04 00:20:00,43.6,43.1,30.41,SE,139,0.0,0.0,98,0.00,,,0.00,WUHU216DAVISVP2,2013-10-04 07:20:00,
2013-10-04 00:21:00,43.5,43.0,30.41,SE,139,0.0,0.0,98,0.00,,,0.00,WUHU216DAVISVP2,2013-10-04 07:21:00,
2013-10-04 00:22:00,43.5,42.9,30.41,SE,139,0.0,0.0,98,0.00,,,0.00,WUHU216DAVISVP2,2013-10-04 07:22:00,
2013-10-04 00:23:00,43.5,42.9,30.41,SE,139,0.0,0.0,98,0.00,,,0.00,WUHU216DAVISVP2,2013-10-04 07:23:00,
2013-10-04 00:24:00,43.5,42.9,30.41,SE,139,0.0,0.0,98,0.00,,,0.00,WUHU216DAVISVP2,2013-10-04 07:24:00,
2013-10-04 00:25:00,43.4,42.8,30.41,SE,139,0.0,0.0,98,0.00,,,0.00,WUHU216DAVISVP2,2013-10-04 07:25:00,
2013-10-04 00:26:00,43.3,42.8,30.41,SE,139,0.0,0.0,98,0.00,,,0.00,WUHU216DAVISVP2,2013-10-04 07:26:00,
2013-10-04 00:27:00,43.3,42.8,30.41,SE,139,0.0,0.0,98,0.00,,,0.00,WUHU216DAVISVP2,2013-10-04 07:27:00,
2013-10-04 00:28:00,43.3,42.8,30.41,SE,139,0.0,0.0,98,0.00,,,0.00,WUHU216DAVISVP2,2013-10-04 07:28:00,
2013-10-04 00:29:00,43.3,42.8,30.41,SE,139,0.0,0.0,98,0.00,,,0.00,WUHU216DAVISVP2,2013-10-04 07:29:00,
2013-10-04 00:30:00,43.3,42.8,30.41,SE,139,0.0,0.0,98,0.00,,,0.00,WUHU216DAVISVP2,2013-10-04 07:30:00,
2013-10-04 00:31:00,43.3,42.8,30.40,SE,139,0.0,0.0,98,0.00,,,0.00,WUHU216DAVISVP2,2013-10-04 07:31:00,
2013-10-04 00:32:00,43.3,42.8,30.40,SE,139,0.0,0.0,98,0.00,,,0.00,WUHU216DAVISVP2,2013-10-04 07:32:00,
2013-10-04 00:33:00,43.3,42.8,30.40,SE,139,0.0,0.0,98,0.00,,,0.00,WUHU216DAVISVP2,2013-10-04 07:33:00,
2013-10-04 00:35:00,43.3,42.8,30.41,SE,139,0.0,0.0,98,0.00,,,0.00,WUHU216DAVISVP2,2013-10-04 07:35:00,
2013-10-04 00:36:00,43.3,42.8,30.41,SE,139,0.0,0.0,98,0.00,,,0.00,WUHU216DAVISVP2,2013-10-04 07:36:00,
2013-10-04 00:37:00,43.4,42.8,30.41,SE,139,0.0,0.0,98,0.00,,,0.00,WUHU216DAVISVP2,2013-10-04 07:37:00,
2013-10-04 00:38:00,43.3,42.8,30.41,SE,139,0.0,0.0,98,0.00,,,0.00,WUHU216DAVISVP2,2013-10-04 07:38:00,
2013-10-04 00:40:00,43.3,42.8,30.41,SE,139,0.0,0.0,98,0.00,,,0.00,WUHU216DAVISVP2,2013-10-04 07:40:00,
2013-10-04 00:41:00,43.3,42.8,30.41,SE,139,0.0,0.0,98,0.00,,,0.00,WUHU216DAVISVP2,2013-10-04 07:41:00,
2013-10-04 00:42:00,43.3,42.8,30.41,SE,139,0.0,0.0,98,0.00,,,0.00,WUHU216DAVISVP2,2013-10-04 07:42:00,
2013-10-04 00:43:00,43.3,42.8,30.41,SE,139,0.0,0.0,98,0.00,,,0.00,WUHU216DAVISVP2,2013-10-04 07:43:00,
2013-10-04 00:45:00,43.2,42.7,30.40,SE,139,0.0,0.0,98,0.00,,,0.00,WUHU216DAVISVP2,2013-10-04 07:45:00,
2013-10-04 00:46:00,43.2,42.7,30.40,SE,138,0.0,0.0,98,0.00,,,0.00,WUHU216DAVISVP2,2013-10-04 07:46:00,
2013-10-04 00:47:00,43.2,42.7,30.40,SE,139,0.0,0.0,98,0.00,,,0.00,WUHU216DAVISVP2,2013-10-04 07:47:00,
2013-10-04 00:48:00,43.1,42.6,30.40,SE,139,0.0,0.0,98,0.00,,,0.00,WUHU216DAVISVP2,2013-10-04 07:48:00,
2013-10-04 00:51:00,43.1,42.6,30.40,SE,139,0.0,0.0,98,0.00,,,0.00,WUHU216DAVISVP2,2013-10-04 07:51:00,
2013-10-04 00:52:00,43.0,42.5,30.40,SE,139,0.0,0.0,98,0.00,,,0.00,WUHU216DAVISVP2,2013-10-04 07:52:00,
2013-10-04 00:53:00,42.9,42.4,30.40,SE,139,0.0,0.0,98,0.00,,,0.00,WUHU216DAVISVP2,2013-10-04 07:53:00,
2013-10-04 00:56:00,42.7,41.9,30.40,SE,139,0.0,0.0,97,0.00,,,0.00,WUHU216DAVISVP2,2013-10-04 07:56:00,
2013-10-04 00:57:00,42.6,41.8,30.40,SE,139,0.0,0.0,97,0.00,,,0.00,WUHU216DAVISVP2,2013-10-04 07:57:00,
2013-10-04 00:58:00,42.6,42.1,30.40,SE,139,0.0,0.0,98,0.00,,,0.00,WUHU216DAVISVP2,2013-10-04 07:58:00,
2013-10-04 00:59:00,42.6,42.1,30.40,SE,139,0.0,0.0,98,0.00,,,0.00,WUHU216DAVISVP2,2013-10-04 07:59:00,
2013-10-04 01:01:00,42.6,42.1,30.40,SE,139,0.0,0.0,98,0.00,,,0.00,WUHU216DAVISVP2,2013-10-04 08:01:00,
2013-10-04 01:02:00,42.6,42.1,30.41,South,190,0.0,0.0,98,0.00,,,0.00,WUHU216DAVISVP2,2013-10-04 08:02:00,
2013-10-04 01:03:00,42.6,42.1,30.41,South,190,0.0,0.0,98,0.00,,,0.00,WUHU216DAVISVP2,2013-10-04 08:03:00,
2013-10-04 01:04:00,42.6,42.1,30.41,South,190,0.0,0.0,98,0.00,,,0.00,WUHU216DAVISVP2,2013-10-04 08:04:00,
2013-10-04 01:06:00,42.5,42.0,30.41,South,190,0.0,0.0,98,0.00,,,0.00,WUHU216DAVISVP2,2013-10-04 08:06:00,
2013-10-04 01:07:00,42.4,41.9,30.41,South,190,0.0,0.0,98,0.00,,,0.00,WUHU216DAVISVP2,2013-10-04 08:07:00,
2013-10-04 01:08:00,42.3,41.8,30.41,South,190,0.0,0.0,98,0.00,,,0.00,WUHU216DAVISVP2,2013-10-04 08:08:00,
2013-10-04 01:09:00,42.3,41.8,30.41,South,190,0.0,0.0,98,0.00,,,0.00,WUHU216DAVISVP2,2013-10-04 08:09:00,
2013-10-04 01:11:00,42.2,41.7,30.41,South,190,0.0,0.0,98,0.00,,,0.00,WUHU216DAVISVP2,2013-10-04 08:11:00,
2013-10-04 01:12:00,42.2,41.7,30.41,South,190,0.0,0.0,98,0.00,,,0.00,WUHU216DAVISVP2,2013-10-04 08:12:00,
2013-10-04 01:14:00,42.0,41.5,30.41,South,190,0.0,0.0,98,0.00,,,0.00,WUHU216DAVISVP2,2013-10-04 08:14:00,
2013-10-04 01:16:00,42.1,41.6,30.41,South,190,0.0,0.0,98,0.00,,,0.00,WUHU216DAVISVP2,2013-10-04 08:16:00,
2013-10-04 01:17:00,42.2,41.7,30.41,South,190,0.0,0.0,98,0.00,,,0.00,WUHU216DAVISVP2,2013-10-04 08:17:00,
2013-10-04 01:19:00,42.1,41.6,30.41,South,190,0.0,0.0,98,0.00,,,0.00,WUHU216DAVISVP2,2013-10-04 08:19:00,
2013-10-04 01:21:00,42.0,41.5,30.41,South,190,0.0,0.0,98,0.00,,,0.00,WUHU216DAVISVP2,2013-10-04 08:21:00,
2013-10-04 01:22:00,42.0,41.5,30.41,South,190,0.0,0.0,98,0.00,,,0.00,WUHU216DAVISVP2,2013-10-04 08:22:00,
2013-10-04 01:24:00,42.0,41.5,30.41,South,190,0.0,0.0,98,0.00,,,0.00,WUHU216DAVISVP2,2013-10-04 08:24:00,
2013-10-04 01:26:00,42.0,41.5,30.41,SE,128,0.0,0.0,98,0.00,,,0.00,WUHU216DAVISVP2,2013-10-04 08:26:00,
2013-10-04 01:27:00,42.0,41.5,30.41,SE,128,0.0,0.0,98,0.00,,,0.00,WUHU216DAVISVP2,2013-10-04 08:27:00,
2013-10-04 01:29:00,42.1,41.6,30.41,SE,128,0.0,0.0,98,0.00,,,0.00,WUHU216DAVISVP2,2013-10-04 08:29:00,
2013-10-04 01:30:00,42.1,41.6,30.41,SE,128,0.0,0.0,98,0.00,,,0.00,WUHU216DAVISVP2,2013-10-04 08:30:00,
2013-10-04 01:31:00,42.1,41.6,30.41,SE,128,0.0,0.0,98,0.00,,,0.00,WUHU216DAVISVP2,2013-10-04 08:31:00,
2013-10-04 01:32:00,42.1,41.6,30.42,SE,128,0.0,0.0,98,0.00,,,0.00,WUHU216DAVISVP2,2013-10-04 08:32:00,
2013-10-04 01:34:00,42.1,41.6,30.42,SE,128,0.0,0.0,98,0.00,,,0.00,WUHU216DAVISVP2,2013-10-04 08:34:00,
2013-10-04 01:35:00,42.2,41.7,30.42,SE,128,0.0,0.0,98,0.00,,,0.00,WUHU216DAVISVP2,2013-10-04 08:35:00,
2013-10-04 01:37:00,42.1,41.6,30.42,SE,128,0.0,0.0,98,0.00,,,0.00,WUHU216DAVISVP2,2013-10-04 08:37:00,
2013-10-04 01:38:00,42.1,41.6,30.42,SE,128,0.0,0.0,98,0.00,,,0.00,WUHU216DAVISVP2,2013-10-04 08:38:00,
2013-10-04 01:39:00,42.1,41.6,30.42,SE,128,0.0,0.0,98,0.00,,,0.00,WUHU216DAVISVP2,2013-10-04 08:39:00,
2013-10-04 01:40:00,42.0,41.5,30.42,SE,128,0.0,0.0,98,0.00,,,0.00,WUHU216DAVISVP2,2013-10-04 08:40:00,
2013-10-04 01:42:00,42.0,41.5,30.42,SE,128,0.0,0.0,98,0.00,,,0.00,WUHU216DAVISVP2,2013-10-04 08:42:00,
2013-10-04 01:43:00,41.9,41.4,30.42,SE,128,0.0,0.0,98,0.00,,,0.00,WUHU216DAVISVP2,2013-10-04 08:43:00,
2013-10-04 01:45:00,41.9,41.4,30.42,SE,128,0.0,0.0,98,0.00,,,0.00,WUHU216DAVISVP2,2013-10-04 08:45:00,
2013-10-04 01:47:00,42.1,41.6,30.42,SE,128,0.0,0.0,98,0.00,,,0.00,WUHU216DAVISVP2,2013-10-04 08:47:00,
2013-10-04 01:48:00,42.1,41.6,30.42,SE,128,0.0,0.0,98,0.00,,,0.00,WUHU216DAVISVP2,2013-10-04 08:48:00,
2013-10-04 01:50:00,42.1,41.6,30.41,SE,128,0.0,0.0,98,0.00,,,0.00,WUHU216DAVISVP2,2013-10-04 08:50:00,
2013-10-04 01:52:00,41.9,41.4,30.41,SE,128,0.0,0.0,98,0.00,,,0.00,WUHU216DAVISVP2,2013-10-04 08:52:00,
2013-10-04 01:53:00,41.9,41.4,30.41,SE,128,0.0,0.0,98,0.00,,,0.00,WUHU216DAVISVP2,2013-10-04 08:53:00,
2013-10-04 01:55:00,41.8,41.3,30.41,SE,128,0.0,0.0,98,0.00,,,0.00,WUHU216DAVISVP2,2013-10-04 08:55:00,
2013-10-04 01:56:00,41.8,41.3,30.41,SE,128,0.0,0.0,98,0.00,,,0.00,WUHU216DAVISVP2,2013-10-04 08:56:00,
2013-10-04 01:57:00,41.8,41.3,30.41,SE,128,0.0,0.0,98,0.00,,,0.00,WUHU216DAVISVP2,2013-10-04 08:57:00,
2013-10-04 01:58:00,41.8,41.3,30.41,SE,127,0.0,0.0,98,0.00,,,0.00,WUHU216DAVISVP2,2013-10-04 08:58:00,
2013-10-04 01:59:00,41.8,41.3,30.42,SE,127,0.0,0.0,98,0.00,,,0.00,WUHU216DAVISVP2,2013-10-04 08:59:00,
2013-10-04 02:00:00,41.8,41.3,30.41,SE,128,0.0,0.0,98,0.00,,,0.00,WUHU216DAVISVP2,2013-10-04 09:00:00,
2013-10-04 02:01:00,41.7,41.2,30.41,SE,128,0.0,0.0,98,0.00,,,0.00,WUHU216DAVISVP2,2013-10-04 09:01:00,
2013-10-04 02:03:00,41.6,41.1,30.42,SE,128,0.0,0.0,98,0.00,,,0.00,WUHU216DAVISVP2,2013-10-04 09:03:00,
2013-10-04 02:04:00,41.5,41.0,30.42,SE,128,0.0,0.0,98,0.00,,,0.00,WUHU216DAVISVP2,2013-10-04 09:04:00,
2013-10-04 02:05:00,41.4,40.9,30.42,SE,128,0.0,0.0,98,0.00,,,0.00,WUHU216DAVISVP2,2013-10-04 09:05:00,
2013-10-04 02:06:00,41.3,40.8,30.42,SE,127,0.0,0.0,98,0.00,,,0.00,WUHU216DAVISVP2,2013-10-04 09:06:00,
2013-10-04 02:08:00,41.3,40.8,30.42,SE,128,0.0,0.0,98,0.00,,,0.00,WUHU216DAVISVP2,2013-10-04 09:08:00,
2013-10-04 02:09:00,41.3,40.8,30.42,SE,128,0.0,0.0,98,0.00,,,0.00,WUHU216DAVISVP2,2013-10-04 09:09:00,
2013-10-04 02:10:00,41.3,40.8,30.42,SE,128,0.0,0.0,98,0.00,,,0.00,WUHU216DAVISVP2,2013-10-04 09:10:00,
2013-10-04 02:11:00,41.4,40.9,30.42,SE,128,0.0,0.0,98,0.00,,,0.00,WUHU216DAVISVP2,2013-10-04 09:11:00,
2013-10-04 02:13:00,41.5,41.0,30.42,SE,128,0.0,0.0,98,0.00,,,0.00,WUHU216DAVISVP2,2013-10-04 09:13:00,
2013-10-04 02:15:00,41.5,41.0,30.42,SE,128,0.0,0.0,98,0.00,,,0.00,WUHU216DAVISVP2,2013-10-04 09:15:00,
2013-10-04 02:16:00,41.6,41.1,30.42,SE,128,0.0,0.0,98,0.00,,,0.00,WUHU216DAVISVP2,2013-10-04 09:16:00,
2013-10-04 02:19:00,41.7,41.2,30.42,SE,128,0.0,0.0,98,0.00,,,0.00,WUHU216DAVISVP2,2013-10-04 09:19:00,
2013-10-04 02:20:00,41.6,41.1,30.42,SE,128,0.0,0.0,98,0.00,,,0.00,WUHU216DAVISVP2,2013-10-04 09:20:00,
2013-10-04 02:21:00,41.7,41.2,30.42,SE,128,0.0,0.0,98,0.00,,,0.00,WUHU216DAVISVP2,2013-10-04 09:21:00,
2013-10-04 02:24:00,41.7,41.2,30.42,SE,128,0.0,0.0,98,0.00,,,0.00,WUHU216DAVISVP2,2013-10-04 09:24:00,
2013-10-04 02:25:00,41.6,41.1,30.42,SE,128,0.0,0.0,98,0.00,,,0.00,WUHU216DAVISVP2,2013-10-04 09:25:00,
2013-10-04 02:27:00,41.6,41.1,30.42,SE,128,0.0,0.0,98,0.00,,,0.00,WUHU216DAVISVP2,2013-10-04 09:27:00,
2013-10-04 02:29:00,41.6,41.1,30.42,SE,127,0.0,0.0,98,0.00,,,0.00,WUHU216DAVISVP2,2013-10-04 09:29:00,
2013-10-04 02:30:00,41.5,41.0,30.42,SE,128,0.0,0.0,98,0.00,,,0.00,WUHU216DAVISVP2,2013-10-04 09:30:00,
2013-10-04 02:32:00,41.6,41.1,30.42,SE,128,0.0,0.0,98,0.00,,,0.00,WUHU216DAVISVP2,2013-10-04 09:32:00,
2013-10-04 02:35:00,41.5,41.0,30.42,SE,127,0.0,0.0,98,0.00,,,0.00,WUHU216DAVISVP2,2013-10-04 09:35:00,
2013-10-04 02:36:00,41.5,41.0,30.42,SE,127,0.0,0.0,98,0.00,,,0.00,WUHU216DAVISVP2,2013-10-04 09:36:00,
2013-10-04 02:37:00,41.5,41.0,30.42,SE,127,0.0,0.0,98,0.00,,,0.00,WUHU216DAVISVP2,2013-10-04 09:37:00,
2013-10-04 02:40:00,41.3,40.8,30.42,SE,128,0.0,0.0,98,0.00,,,0.00,WUHU216DAVISVP2,2013-10-04 09:40:00,
2013-10-04 02:41:00,41.3,40.8,30.42,SE,128,0.0,0.0,98,0.00,,,0.00,WUHU216DAVISVP2,2013-10-04 09:41:00,
2013-10-04 02:42:00,41.3,40.8,30.42,SE,128,0.0,0.0,98,0.00,,,0.00,WUHU216DAVISVP2,2013-10-04 09:42:00,
2013-10-04 02:46:00,41.7,41.2,30.42,SE,128,0.0,0.0,98,0.00,,,0.00,WUHU216DAVISVP2,2013-10-04 09:46:00,
2013-10-04 02:47:00,41.7,41.4,30.41,SE,128,0.0,0.0,99,0.00,,,0.00,WUHU216DAVISVP2,2013-10-04 09:47:00,
2013-10-04 02:48:00,41.8,41.5,30.41,SE,127,0.0,0.0,99,0.00,,,0.00,WUHU216DAVISVP2,2013-10-04 09:48:00,
2013-10-04 02:51:00,41.8,41.5,30.41,SE,128,0.0,0.0,99,0.00,,,0.00,WUHU216DAVISVP2,2013-10-04 09:51:00,
2013-10-04 02:52:00,41.8,41.5,30.41,SE,128,0.0,0.0,99,0.00,,,0.00,WUHU216DAVISVP2,2013-10-04 09:52:00,
2013-10-04 02:53:00,41.8,41.5,30.41,SE,127,0.0,0.0,99,0.00,,,0.00,WUHU216DAVISVP2,2013-10-04 09:53:00,
2013-10-04 02:56:00,41.7,41.4,30.41,SE,128,0.0,0.0,99,0.00,,,0.00,WUHU216DAVISVP2,2013-10-04 09:56:00,
2013-10-04 02:57:00,41.7,41.2,30.41,SE,127,0.0,0.0,98,0.00,,,0.00,WUHU216DAVISVP2,2013-10-04 09:57:00,
2013-10-04 02:58:00,41.7,41.2,30.41,SE,128,0.0,0.0,98,0.00,,,0.00,WUHU216DAVISVP2,2013-10-04 09:58:00,
2013-10-04 03:02:00,41.5,41.0,30.41,SE,127,0.0,0.0,98,0.00,,,0.00,WUHU216DAVISVP2,2013-10-04 10:02:00,
2013-10-04 03:03:00,41.5,41.0,30.41,SE,128,0.0,0.0,98,0.00,,,0.00,WUHU216DAVISVP2,2013-10-04 10:03:00,
2013-10-04 03:04:00,41.5,41.0,30.41,SE,128,0.0,0.0,98,0.00,,,0.00,WUHU216DAVISVP2,2013-10-04 10:04:00,
2013-10-04 03:07:00,41.5,41.0,30.41,SE,128,0.0,0.0,98,0.00,,,0.00,WUHU216DAVISVP2,2013-10-04 10:07:00,
2013-10-04 03:08:00,41.5,41.0,30.41,SE,127,0.0,0.0,98,0.00,,,0.00,WUHU216DAVISVP2,2013-10-04 10:08:00,
2013-10-04 03:09:00,41.4,40.9,30.41,SE,128,0.0,0.0,98,0.00,,,0.00,WUHU216DAVISVP2,2013-10-04 10:09:00,
2013-10-04 03:12:00,41.3,40.8,30.41,SE,127,0.0,0.0,98,0.00,,,0.00,WUHU216DAVISVP2,2013-10-04 10:12:00,
2013-10-04 03:13:00,41.3,40.8,30.41,ESE,114,0.0,0.0,98,0.00,,,0.00,WUHU216DAVISVP2,2013-10-04 10:13:00,
2013-10-04 03:14:00,41.3,40.8,30.41,East,97,0.0,0.0,98,0.00,,,0.00,WUHU216DAVISVP2,2013-10-04 10:14:00,
2013-10-04 03:17:00,41.3,40.8,30.41,East,97,0.0,0.0,98,0.00,,,0.00,WUHU216DAVISVP2,2013-10-04 10:17:00,
2013-10-04 03:19:00,41.2,40.7,30.41,East,97,0.0,0.0,98,0.00,,,0.00,WUHU216DAVISVP2,2013-10-04 10:19:00,
2013-10-04 03:22:00,41.2,40.7,30.41,East,97,0.0,0.0,98,0.00,,,0.00,WUHU216DAVISVP2,2013-10-04 10:22:00,
2013-10-04 03:23:00,41.2,40.7,30.41,East,97,0.0,0.0,98,0.00,,,0.00,WUHU216DAVISVP2,2013-10-04 10:23:00,
2013-10-04 03:24:00,41.1,40.6,30.41,East,97,0.0,0.0,98,0.00,,,0.00,WUHU216DAVISVP2,2013-10-04 10:24:00,
2013-10-04 03:27:00,41.0,40.5,30.41,East,97,0.0,0.0,98,0.00,,,0.00,WUHU216DAVISVP2,2013-10-04 10:27:00,
2013-10-04 03:28:00,40.9,40.4,30.41,East,97,0.0,0.0,98,0.00,,,0.00,WUHU216DAVISVP2,2013-10-04 10:28:00,
2013-10-04 03:29:00,40.9,40.4,30.40,East,98,0.0,0.0,98,0.00,,,0.00,WUHU216DAVISVP2,2013-10-04 10:29:00,
2013-10-04 03:31:00,40.8,40.3,30.41,East,97,0.0,0.0,98,0.00,,,0.00,WUHU216DAVISVP2,2013-10-04 10:31:00,
2013-10-04 03:32:00,40.7,40.2,30.41,East,97,0.0,0.0,98,0.00,,,0.00,WUHU216DAVISVP2,2013-10-04 10:32:00,
2013-10-04 03:33:00,40.7,40.2,30.41,East,97,0.0,0.0,98,0.00,,,0.00,WUHU216DAVISVP2,2013-10-04 10:33:00,
2013-10-04 03:34:00,40.7,40.2,30.40,East,97,0.0,0.0,98,0.00,,,0.00,WUHU216DAVISVP2,2013-10-04 10:34:00,
2013-10-04 03:35:00,40.6,40.1,30.40,East,97,0.0,0.0,98,0.00,,,0.00,WUHU216DAVISVP2,2013-10-04 10:35:00,
2013-10-04 03:36:00,40.7,40.2,30.40,East,97,0.0,0.0,98,0.00,,,0.00,WUHU216DAVISVP2,2013-10-04 10:36:00,
2013-10-04 03:37:00,40.8,40.3,30.40,East,98,0.0,0.0,98,0.00,,,0.00,WUHU216DAVISVP2,2013-10-04 10:37:00,
2013-10-04 03:38:00,40.8,40.3,30.40,East,97,0.0,0.0,98,0.00,,,0.00,WUHU216DAVISVP2,2013-10-04 10:38:00,
2013-10-04 03:39:00,40.8,40.3,30.40,East,97,0.0,0.0,98,0.00,,,0.00,WUHU216DAVISVP2,2013-10-04 10:39:00,
2013-10-04 03:40:00,40.9,40.4,30.40,East,97,0.0,0.0,98,0.00,,,0.00,WUHU216DAVISVP2,2013-10-04 10:40:00,
2013-10-04 03:41:00,40.9,40.6,30.40,East,97,0.0,0.0,99,0.00,,,0.00,WUHU216DAVISVP2,2013-10-04 10:41:00,
2013-10-04 03:43:00,40.9,40.6,30.40,East,97,0.0,0.0,99,0.00,,,0.00,WUHU216DAVISVP2,2013-10-04 10:43:00,
2013-10-04 03:44:00,40.8,40.5,30.40,East,98,0.0,0.0,99,0.00,,,0.00,WUHU216DAVISVP2,2013-10-04 10:44:00,
2013-10-04 03:45:00,40.8,40.5,30.40,East,97,0.0,0.0,99,0.00,,,0.00,WUHU216DAVISVP2,2013-10-04 10:45:00,
2013-10-04 03:47:00,40.7,40.2,30.40,East,97,0.0,0.0,98,0.00,,,0.00,WUHU216DAVISVP2,2013-10-04 10:47:00,
2013-10-04 03:48:00,40.7,40.2,30.40,East,97,0.0,0.0,98,0.00,,,0.00,WUHU216DAVISVP2,2013-10-04 10:48:00,
2013-10-04 03:50:00,40.7,40.2,30.41,East,97,0.0,0.0,98,0.00,,,0.00,WUHU216DAVISVP2,2013-10-04 10:50:00,
2013-10-04 03:52:00,40.7,40.4,30.40,East,97,0.0,0.0,99,0.00,,,0.00,WUHU216DAVISVP2,2013-10-04 10:52:00,
2013-10-04 03:53:00,40.7,40.4,30.40,East,97,0.0,0.0,99,0.00,,,0.00,WUHU216DAVISVP2,2013-10-04 10:53:00,
2013-10-04 03:54:00,40.8,40.5,30.40,East,98,0.0,0.0,99,0.00,,,0.00,WUHU216DAVISVP2,2013-10-04 10:54:00,
2013-10-04 03:55:00,40.9,40.6,30.40,East,98,0.0,0.0,99,0.00,,,0.00,WUHU216DAVISVP2,2013-10-04 10:55:00,
2013-10-04 03:57:00,41.1,40.8,30.40,East,97,0.0,0.0,99,0.00,,,0.00,WUHU216DAVISVP2,2013-10-04 10:57:00,
2013-10-04 03:58:00,41.1,40.8,30.40,East,98,0.0,0.0,99,0.00,,,0.00,WUHU216DAVISVP2,2013-10-04 10:58:00,
2013-10-04 03:59:00,41.2,40.9,30.41,East,97,0.0,0.0,99,0.00,,,0.00,WUHU216DAVISVP2,2013-10-04 10:59:00,
2013-10-04 04:00:00,41.3,41.0,30.40,East,97,0.0,0.0,99,0.00,,,0.00,WUHU216DAVISVP2,2013-10-04 11:00:00,
2013-10-04 04:02:00,41.3,41.0,30.40,East,97,0.0,0.0,99,0.00,,,0.00,WUHU216DAVISVP2,2013-10-04 11:02:00,
2013-10-04 04:03:00,41.4,41.1,30.40,East,97,0.0,0.0,99,0.00,,,0.00,WUHU216DAVISVP2,2013-10-04 11:03:00,
2013-10-04 04:04:00,41.4,41.1,30.40,East,97,0.0,0.0,99,0.00,,,0.00,WUHU216DAVISVP2,2013-10-04 11:04:00,
2013-10-04 04:05:00,41.4,41.1,30.40,East,97,0.0,0.0,99,0.00,,,0.00,WUHU216DAVISVP2,2013-10-04 11:05:00,
2013-10-04 04:06:00,41.4,41.1,30.40,East,97,0.0,0.0,99,0.00,,,0.00,WUHU216DAVISVP2,2013-10-04 11:06:00,
2013-10-04 04:07:00,41.5,41.2,30.40,East,97,0.0,0.0,99,0.00,,,0.00,WUHU216DAVISVP2,2013-10-04 11:07:00,
2013-10-04 04:08:00,41.6,41.3,30.40,East,98,0.0,0.0,99,0.00,,,0.00,WUHU216DAVISVP2,2013-10-04 11:08:00,
2013-10-04 04:09:00,41.5,41.2,30.40,East,97,0.0,0.0,99,0.00,,,0.00,WUHU216DAVISVP2,2013-10-04 11:09:00,
2013-10-04 04:10:00,41.6,41.3,30.40,East,97,0.0,0.0,99,0.00,,,0.00,WUHU216DAVISVP2,2013-10-04 11:10:00,
2013-10-04 04:12:00,41.6,41.3,30.40,East,97,0.0,0.0,99,0.00,,,0.00,WUHU216DAVISVP2,2013-10-04 11:12:00,
2013-10-04 04:13:00,41.6,41.3,30.40,East,97,0.0,0.0,99,0.00,,,0.00,WUHU216DAVISVP2,2013-10-04 11:13:00,
2013-10-04 04:15:00,41.5,41.2,30.40,East,98,0.0,0.0,99,0.00,,,0.00,WUHU216DAVISVP2,2013-10-04 11:15:00,
2013-10-04 04:19:00,41.2,40.9,30.40,East,97,0.0,0.0,99,0.00,,,0.00,WUHU216DAVISVP2,2013-10-04 11:19:00,
2013-10-04 04:20:00,41.2,40.9,30.40,East,98,0.0,0.0,99,0.00,,,0.00,WUHU216DAVISVP2,2013-10-04 11:20:00,
2013-10-04 04:21:00,41.1,40.8,30.40,East,97,0.0,0.0,99,0.00,,,0.00,WUHU216DAVISVP2,2013-10-04 11:21:00,
2013-10-04 04:24:00,41.1,40.8,30.40,East,98,0.0,0.0,99,0.00,,,0.00,WUHU216DAVISVP2,2013-10-04 11:24:00,
2013-10-04 04:25:00,41.1,40.8,30.40,East,98,0.0,0.0,99,0.00,,,0.00,WUHU216DAVISVP2,2013-10-04 11:25:00,
2013-10-04 04:26:00,41.0,40.7,30.40,East,97,0.0,0.0,99,0.00,,,0.00,WUHU216DAVISVP2,2013-10-04 11:26:00,
2013-10-04 04:29:00,40.9,40.6,30.40,East,97,0.0,0.0,99,0.00,,,0.00,WUHU216DAVISVP2,2013-10-04 11:29:00,
2013-10-04 04:30:00,40.9,40.6,30.40,East,97,0.0,0.0,99,0.00,,,0.00,WUHU216DAVISVP2,2013-10-04 11:30:00,
2013-10-04 04:32:00,40.8,40.5,30.40,East,98,0.0,0.0,99,0.00,,,0.00,WUHU216DAVISVP2,2013-10-04 11:32:00,
2013-10-04 04:34:00,40.8,40.3,30.40,East,97,0.0,0.0,98,0.00,,,0.00,WUHU216DAVISVP2,2013-10-04 11:34:00,
2013-10-04 04:35:00,40.8,40.3,30.40,East,97,0.0,0.0,98,0.00,,,0.00,WUHU216DAVISVP2,2013-10-04 11:35:00,
2013-10-04 04:36:00,40.8,40.3,30.40,East,97,0.0,0.0,98,0.00,,,0.00,WUHU216DAVISVP2,2013-10-04 11:36:00,
2013-10-04 04:37:00,40.9,40.4,30.40,East,97,0.0,0.0,98,0.00,,,0.00,WUHU216DAVISVP2,2013-10-04 11:37:00,
2013-10-04 04:39:00,40.9,40.6,30.40,East,98,0.0,0.0,99,0.00,,,0.00,WUHU216DAVISVP2,2013-10-04 11:39:00,
2013-10-04 04:40:00,40.8,40.5,30.40,East,97,0.0,0.0,99,0.00,,,0.00,WUHU216DAVISVP2,2013-10-04 11:40:00,
2013-10-04 04:41:00,40.8,40.3,30.40,East,98,0.0,0.0,98,0.00,,,0.00,WUHU216DAVISVP2,2013-10-04 11:41:00,
2013-10-04 04:42:00,40.7,40.2,30.40,East,98,0.0,0.0,98,0.00,,,0.00,WUHU216DAVISVP2,2013-10-04 11:42:00,
2013-10-04 04:44:00,40.6,40.1,30.41,East,98,0.0,0.0,98,0.00,,,0.00,WUHU216DAVISVP2,2013-10-04 11:44:00,
2013-10-04 04:45:00,40.6,40.1,30.41,East,98,0.0,0.0,98,0.00,,,0.00,WUHU216DAVISVP2,2013-10-04 11:45:00,
2013-10-04 04:46:00,40.6,40.1,30.41,East,101,0.0,0.0,98,0.00,,,0.00,WUHU216DAVISVP2,2013-10-04 11:46:00,
2013-10-04 04:48:00,40.5,40.0,30.41,East,101,0.0,0.0,98,0.00,,,0.00,WUHU216DAVISVP2,2013-10-04 11:48:00,
2013-10-04 04:49:00,40.5,40.0,30.41,East,101,0.0,0.0,98,0.00,,,0.00,WUHU216DAVISVP2,2013-10-04 11:49:00,
2013-10-04 04:50:00,40.5,40.0,30.41,East,101,0.0,0.0,98,0.00,,,0.00,WUHU216DAVISVP2,2013-10-04 11:50:00,
2013-10-04 04:51:00,40.4,39.9,30.41,East,101,0.0,0.0,98,0.00,,,0.00,WUHU216DAVISVP2,2013-10-04 11:51:00,
2013-10-04 04:53:00,40.4,39.9,30.41,East,101,0.0,0.0,98,0.00,,,0.00,WUHU216DAVISVP2,2013-10-04 11:53:00,
2013-10-04 04:54:00,40.4,39.9,30.41,East,101,0.0,0.0,98,0.00,,,0.00,WUHU216DAVISVP2,2013-10-04 11:54:00,
2013-10-04 04:55:00,40.3,39.8,30.41,East,101,0.0,0.0,98,0.00,,,0.00,WUHU216DAVISVP2,2013-10-04 11:55:00,
2013-10-04 04:56:00,40.3,39.8,30.41,East,101,0.0,0.0,98,0.00,,,0.00,WUHU216DAVISVP2,2013-10-04 11:56:00,
2013-10-04 04:57:00,40.3,39.8,30.41,East,101,0.0,0.0,98,0.00,,,0.00,WUHU216DAVISVP2,2013-10-04 11:57:00,
2013-10-04 04:58:00,40.3,39.8,30.41,East,101,0.0,0.0,98,0.00,,,0.00,WUHU216DAVISVP2,2013-10-04 11:58:00,
2013-10-04 04:59:00,40.3,39.8,30.41,East,101,0.0,0.0,98,0.00,,,0.00,WUHU216DAVISVP2,2013-10-04 11:59:00,
2013-10-04 05:01:00,40.3,39.8,30.40,East,101,0.0,0.0,98,0.00,,,0.00,WUHU216DAVISVP2,2013-10-04 12:01:00,
2013-10-04 05:02:00,40.3,39.8,30.41,East,101,0.0,0.0,98,0.00,,,0.00,WUHU216DAVISVP2,2013-10-04 12:02:00,
2013-10-04 05:03:00,40.2,39.7,30.40,East,101,0.0,0.0,98,0.00,,,0.00,WUHU216DAVISVP2,2013-10-04 12:03:00,
2013-10-04 05:04:00,40.2,39.7,30.40,East,101,0.0,0.0,98,0.00,,,0.00,WUHU216DAVISVP2,2013-10-04 12:04:00,
2013-10-04 05:06:00,40.4,39.9,30.40,East,101,0.0,0.0,98,0.00,,,0.00,WUHU216DAVISVP2,2013-10-04 12:06:00,
2013-10-04 05:07:00,40.4,40.1,30.40,East,101,0.0,0.0,99,0.00,,,0.00,WUHU216DAVISVP2,2013-10-04 12:07:00,
2013-10-04 05:09:00,40.5,40.2,30.40,East,101,0.0,0.0,99,0.00,,,0.00,WUHU216DAVISVP2,2013-10-04 12:09:00,
2013-10-04 05:11:00,40.4,40.1,30.40,East,101,0.0,0.0,99,0.00,,,0.00,WUHU216DAVISVP2,2013-10-04 12:11:00,
2013-10-04 05:12:00,40.4,40.1,30.40,East,101,0.0,0.0,99,0.00,,,0.00,WUHU216DAVISVP2,2013-10-04 12:12:00,
2013-10-04 05:14:00,40.3,39.8,30.40,East,101,0.0,0.0,98,0.00,,,0.00,WUHU216DAVISVP2,2013-10-04 12:14:00,
2013-10-04 05:17:00,40.2,39.7,30.40,East,101,0.0,0.0,98,0.00,,,0.00,WUHU216DAVISVP2,2013-10-04 12:17:00,
2013-10-04 05:19:00,40.2,39.7,30.40,East,101,0.0,0.0,98,0.00,,,0.00,WUHU216DAVISVP2,2013-10-04 12:19:00,
2013-10-04 05:22:00,40.1,39.6,30.40,ESE,103,0.0,0.0,98,0.00,,,0.00,WUHU216DAVISVP2,2013-10-04 12:22:00,
2013-10-04 05:23:00,40.1,39.6,30.40,ESE,103,0.0,0.0,98,0.00,,,0.00,WUHU216DAVISVP2,2013-10-04 12:23:00,
2013-10-04 05:25:00,40.1,39.6,30.40,ESE,103,0.0,0.0,98,0.00,,,0.00,WUHU216DAVISVP2,2013-10-04 12:25:00,
2013-10-04 05:27:00,40.2,39.9,30.40,ESE,103,0.0,0.0,99,0.00,,,0.00,WUHU216DAVISVP2,2013-10-04 12:27:00,
2013-10-04 05:28:00,40.2,39.9,30.40,ESE,103,0.0,0.0,99,0.00,,,0.00,WUHU216DAVISVP2,2013-10-04 12:28:00,
2013-10-04 05:30:00,40.4,40.1,30.40,ESE,118,0.0,0.0,99,0.00,,,0.00,WUHU216DAVISVP2,2013-10-04 12:30:00,
2013-10-04 05:31:00,40.6,40.3,30.40,ESE,118,0.0,0.0,99,0.00,,,0.00,WUHU216DAVISVP2,2013-10-04 12:31:00,
2013-10-04 05:32:00,40.6,40.3,30.40,ESE,117,0.0,0.0,99,0.00,,,0.00,WUHU216DAVISVP2,2013-10-04 12:32:00,
2013-10-04 05:33:00,40.7,40.4,30.40,ESE,118,0.0,0.0,99,0.00,,,0.00,WUHU216DAVISVP2,2013-10-04 12:33:00,
2013-10-04 05:34:00,40.7,40.4,30.40,ESE,118,0.0,0.0,99,0.00,,,0.00,WUHU216DAVISVP2,2013-10-04 12:34:00,
2013-10-04 05:35:00,40.8,40.5,30.40,ESE,118,0.0,0.0,99,0.00,,,0.00,WUHU216DAVISVP2,2013-10-04 12:35:00,
2013-10-04 05:36:00,40.8,40.5,30.40,ESE,118,0.0,0.0,99,0.00,,,0.00,WUHU216DAVISVP2,2013-10-04 12:36:00,
2013-10-04 05:37:00,40.7,40.4,30.40,ESE,114,0.0,0.0,99,0.00,,,0.00,WUHU216DAVISVP2,2013-10-04 12:37:00,
2013-10-04 05:38:00,40.8,40.5,30.40,ESE,114,0.0,0.0,99,0.00,,,0.00,WUHU216DAVISVP2,2013-10-04 12:38:00,
2013-10-04 05:39:00,40.8,40.5,30.40,ESE,114,0.0,0.0,99,0.00,,,0.00,WUHU216DAVISVP2,2013-10-04 12:39:00,
2013-10-04 05:40:00,40.8,40.5,30.40,ESE,114,0.0,0.0,99,0.00,,,0.00,WUHU216DAVISVP2,2013-10-04 12:40:00,
2013-10-04 05:41:00,40.8,40.5,30.40,ESE,114,0.0,0.0,99,0.00,,,0.00,WUHU216DAVISVP2,2013-10-04 12:41:00,
2013-10-04 05:42:00,40.9,40.6,30.40,ESE,114,0.0,0.0,99,0.00,,,0.00,WUHU216DAVISVP2,2013-10-04 12:42:00,
2013-10-04 05:44:00,40.9,40.6,30.40,SW,214,0.0,0.0,99,0.00,,,0.00,WUHU216DAVISVP2,2013-10-04 12:44:00,
2013-10-04 05:45:00,41.0,40.7,30.40,SSW,213,0.0,0.0,99,0.00,,,0.00,WUHU216DAVISVP2,2013-10-04 12:45:00,
2013-10-04 05:46:00,41.0,40.7,30.40,SSW,213,0.0,0.0,99,0.00,,,0.00,WUHU216DAVISVP2,2013-10-04 12:46:00,
2013-10-04 05:48:00,41.0,40.7,30.40,SSW,213,0.0,0.0,99,0.00,,,0.00,WUHU216DAVISVP2,2013-10-04 12:48:00,
2013-10-04 05:49:00,40.9,40.6,30.41,SSW,213,0.0,0.0,99,0.00,,,0.00,WUHU216DAVISVP2,2013-10-04 12:49:00,
2013-10-04 05:50:00,40.9,40.6,30.41,SSW,212,0.0,0.0,99,0.00,,,0.00,WUHU216DAVISVP2,2013-10-04 12:50:00,
2013-10-04 05:52:00,40.8,40.5,30.41,SSW,211,0.0,0.0,99,0.00,,,0.00,WUHU216DAVISVP2,2013-10-04 12:52:00,
2013-10-04 05:53:00,40.8,40.5,30.40,SSW,212,0.0,0.0,99,0.00,,,0.00,WUHU216DAVISVP2,2013-10-04 12:53:00,
2013-10-04 05:54:00,40.8,40.5,30.41,SSW,211,0.0,0.0,99,0.00,,,0.00,WUHU216DAVISVP2,2013-10-04 12:54:00,
2013-10-04 05:55:00,40.8,40.5,30.41,SSW,211,0.0,0.0,99,0.00,,,0.00,WUHU216DAVISVP2,2013-10-04 12:55:00,
2013-10-04 05:56:00,40.7,40.4,30.41,SSW,212,0.0,0.0,99,0.00,,,0.00,WUHU216DAVISVP2,2013-10-04 12:56:00,
2013-10-04 05:57:00,40.7,40.4,30.41,SSW,212,0.0,0.0,99,0.00,,,0.00,WUHU216DAVISVP2,2013-10-04 12:57:00,
2013-10-04 05:58:00,40.7,40.4,30.41,SSW,212,0.0,0.0,99,0.00,,,0.00,WUHU216DAVISVP2,2013-10-04 12:58:00,
2013-10-04 05:59:00,40.7,40.4,30.41,SSW,212,0.0,0.0,99,0.00,,,0.00,WUHU216DAVISVP2,2013-10-04 12:59:00,
2013-10-04 06:00:00,40.6,40.3,30.41,SSW,211,0.0,0.0,99,0.00,,,0.00,WUHU216DAVISVP2,2013-10-04 13:00:00,
2013-10-04 06:01:00,40.6,40.3,30.41,SSW,211,0.0,0.0,99,0.00,,,0.00,WUHU216DAVISVP2,2013-10-04 13:01:00,
2013-10-04 06:03:00,40.5,40.2,30.41,SSW,211,0.0,0.0,99,0.00,,,0.00,WUHU216DAVISVP2,2013-10-04 13:03:00,
2013-10-04 06:04:00,40.4,40.1,30.41,SSW,211,0.0,0.0,99,0.00,,,0.00,WUHU216DAVISVP2,2013-10-04 13:04:00,
2013-10-04 06:05:00,40.3,40.0,30.41,SSW,211,0.0,0.0,99,0.00,,,0.00,WUHU216DAVISVP2,2013-10-04 13:05:00,
2013-10-04 06:06:00,40.3,40.0,30.40,SSW,211,0.0,0.0,99,0.00,,,0.00,WUHU216DAVISVP2,2013-10-04 13:06:00,
2013-10-04 06:08:00,40.3,40.0,30.40,SSW,211,0.0,0.0,99,0.00,,,0.00,WUHU216DAVISVP2,2013-10-04 13:08:00,
2013-10-04 06:09:00,40.2,39.9,30.40,SSW,211,0.0,0.0,99,0.00,,,0.00,WUHU216DAVISVP2,2013-10-04 13:09:00,
2013-10-04 06:10:00,40.2,39.7,30.41,SSW,212,0.0,0.0,98,0.00,,,0.00,WUHU216DAVISVP2,2013-10-04 13:10:00,
2013-10-04 06:11:00,40.1,39.6,30.41,SSW,211,0.0,0.0,98,0.00,,,0.00,WUHU216DAVISVP2,2013-10-04 13:11:00,
2013-10-04 06:13:00,40.1,39.6,30.41,SSW,211,0.0,0.0,98,0.00,,,0.00,WUHU216DAVISVP2,2013-10-04 13:13:00,
2013-10-04 06:14:00,40.0,39.5,30.41,SSW,211,0.0,0.0,98,0.00,,,0.00,WUHU216DAVISVP2,2013-10-04 13:14:00,
2013-10-04 06:15:00,40.1,39.6,30.41,SSW,212,0.0,0.0,98,0.00,,,0.00,WUHU216DAVISVP2,2013-10-04 13:15:00,
2013-10-04 06:16:00,40.1,39.6,30.41,SSW,212,0.0,0.0,98,0.00,,,0.00,WUHU216DAVISVP2,2013-10-04 13:16:00,
2013-10-04 06:17:00,40.1,39.8,30.41,SSW,212,0.0,0.0,99,0.00,,,0.00,WUHU216DAVISVP2,2013-10-04 13:17:00,
2013-10-04 06:19:00,40.2,39.9,30.41,ESE,105,0.0,0.0,99,0.00,,,0.00,WUHU216DAVISVP2,2013-10-04 13:19:00,
2013-10-04 06:20:00,40.4,40.1,30.41,ESE,112,0.0,0.0,99,0.00,,,0.00,WUHU216DAVISVP2,2013-10-04 13:20:00,
2013-10-04 06:21:00,40.4,40.1,30.41,ESE,112,0.0,0.0,99,0.00,,,0.00,WUHU216DAVISVP2,2013-10-04 13:21:00,
2013-10-04 06:22:00,40.5,40.2,30.41,ESE,112,0.0,0.0,99,0.00,,,0.00,WUHU216DAVISVP2,2013-10-04 13:22:00,
2013-10-04 06:24:00,40.6,40.3,30.41,ESE,115,0.0,0.0,99,0.00,,,0.00,WUHU216DAVISVP2,2013-10-04 13:24:00,
2013-10-04 06:26:00,40.8,40.5,30.41,ESE,115,0.0,0.0,99,0.00,,,0.00,WUHU216DAVISVP2,2013-10-04 13:26:00,
2013-10-04 06:27:00,40.9,40.6,30.41,ESE,115,0.0,0.0,99,0.00,,,0.00,WUHU216DAVISVP2,2013-10-04 13:27:00,
2013-10-04 06:30:00,40.9,40.6,30.41,ESE,115,0.0,0.0,99,0.00,,,0.00,WUHU216DAVISVP2,2013-10-04 13:30:00,
2013-10-04 06:31:00,40.9,40.6,30.41,ESE,115,0.0,0.0,99,0.00,,,0.00,WUHU216DAVISVP2,2013-10-04 13:31:00,
2013-10-04 06:32:00,41.0,40.7,30.41,SW,214,0.0,0.0,99,0.00,,,0.00,WUHU216DAVISVP2,2013-10-04 13:32:00,
2013-10-04 06:35:00,41.2,40.9,30.41,SW,214,0.0,0.0,99,0.00,,,0.00,WUHU216DAVISVP2,2013-10-04 13:35:00,
2013-10-04 06:36:00,41.3,41.0,30.41,SW,214,0.0,0.0,99,0.00,,,0.00,WUHU216DAVISVP2,2013-10-04 13:36:00,
2013-10-04 06:37:00,41.4,41.1,30.41,SW,214,0.0,0.0,99,0.00,,,0.00,WUHU216DAVISVP2,2013-10-04 13:37:00,
2013-10-04 06:38:00,41.4,41.1,30.41,SW,214,0.0,0.0,99,0.00,,,0.00,WUHU216DAVISVP2,2013-10-04 13:38:00,
2013-10-04 06:40:00,41.5,41.2,30.41,SW,214,0.0,0.0,99,0.00,,,0.00,WUHU216DAVISVP2,2013-10-04 13:40:00,
2013-10-04 06:41:00,41.5,41.2,30.41,SW,214,0.0,0.0,99,0.00,,,0.00,WUHU216DAVISVP2,2013-10-04 13:41:00,
2013-10-04 06:42:00,41.5,41.2,30.41,SW,214,0.0,0.0,99,0.00,,,0.00,WUHU216DAVISVP2,2013-10-04 13:42:00,
2013-10-04 06:43:00,41.5,41.2,30.41,SSW,203,0.0,0.0,99,0.00,,,0.00,WUHU216DAVISVP2,2013-10-04 13:43:00,
2013-10-04 06:45:00,41.6,41.3,30.41,ESE,116,0.0,1.0,99,0.00,,,0.00,WUHU216DAVISVP2,2013-10-04 13:45:00,
2013-10-04 06:46:00,41.7,41.4,30.41,SW,217,0.0,1.0,99,0.00,,,0.00,WUHU216DAVISVP2,2013-10-04 13:46:00,
2013-10-04 06:48:00,41.8,41.5,30.41,SSW,201,0.0,1.0,99,0.00,,,0.00,WUHU216DAVISVP2,2013-10-04 13:48:00,
2013-10-04 06:51:00,42.0,41.7,30.41,SSW,207,0.0,1.0,99,0.00,,,0.00,WUHU216DAVISVP2,2013-10-04 13:51:00,
2013-10-04 06:52:00,42.0,41.7,30.41,SSW,207,0.0,1.0,99,0.00,,,0.00,WUHU216DAVISVP2,2013-10-04 13:52:00,
2013-10-04 06:53:00,42.0,41.7,30.41,SSW,207,0.0,1.0,99,0.00,,,0.00,WUHU216DAVISVP2,2013-10-04 13:53:00,
2013-10-04 06:54:00,42.1,41.8,30.41,SSW,205,0.0,1.0,99,0.00,,,0.00,WUHU216DAVISVP2,2013-10-04 13:54:00,
2013-10-04 06:56:00,42.0,41.7,30.41,SSW,205,0.0,1.0,99,0.00,,,0.00,WUHU216DAVISVP2,2013-10-04 13:56:00,
2013-10-04 06:57:00,42.0,41.7,30.41,SSW,205,0.0,1.0,99,0.00,,,0.00,WUHU216DAVISVP2,2013-10-04 13:57:00,
2013-10-04 06:58:00,42.0,41.7,30.41,SSW,203,0.0,1.0,99,0.00,,,0.00,WUHU216DAVISVP2,2013-10-04 13:58:00,
2013-10-04 06:59:00,42.0,41.7,30.41,SSW,205,0.0,1.0,99,0.00,,,0.00,WUHU216DAVISVP2,2013-10-04 13:59:00,
2013-10-04 07:01:00,42.2,41.9,30.41,SSW,210,0.0,1.0,99,0.00,,,0.00,WUHU216DAVISVP2,2013-10-04 14:01:00,
2013-10-04 07:02:00,42.2,41.9,30.41,SSW,211,0.0,1.0,99,0.00,,,0.00,WUHU216DAVISVP2,2013-10-04 14:02:00,
2013-10-04 07:03:00,42.3,42.0,30.40,SW,220,0.0,1.0,99,0.00,,,0.00,WUHU216DAVISVP2,2013-10-04 14:03:00,
2013-10-04 07:05:00,42.4,42.1,30.40,SSW,205,0.0,1.0,99,0.00,,,0.00,WUHU216DAVISVP2,2013-10-04 14:05:00,
2013-10-04 07:06:00,42.4,42.1,30.40,SSW,202,0.0,1.0,99,0.00,,,0.00,WUHU216DAVISVP2,2013-10-04 14:06:00,
2013-10-04 07:07:00,42.4,42.1,30.40,SSW,202,0.0,1.0,99,0.00,,,0.00,WUHU216DAVISVP2,2013-10-04 14:07:00,
2013-10-04 07:08:00,42.4,42.1,30.40,SSW,193,0.0,1.0,99,0.00,,,0.00,WUHU216DAVISVP2,2013-10-04 14:08:00,
2013-10-04 07:10:00,42.4,42.1,30.40,SSW,205,0.0,1.0,99,0.00,,,0.00,WUHU216DAVISVP2,2013-10-04 14:10:00,
2013-10-04 07:12:00,42.5,42.2,30.40,SSW,208,0.0,1.0,99,0.00,,,0.00,WUHU216DAVISVP2,2013-10-04 14:12:00,
2013-10-04 07:13:00,42.5,42.2,30.40,SSW,209,0.0,1.0,99,0.00,,,0.00,WUHU216DAVISVP2,2013-10-04 14:13:00,
2013-10-04 07:15:00,42.6,42.3,30.40,SW,224,0.0,1.0,99,0.00,,,0.00,WUHU216DAVISVP2,2013-10-04 14:15:00,
2013-10-04 07:17:00,42.7,42.4,30.40,SE,133,0.0,1.0,99,0.00,,,0.00,WUHU216DAVISVP2,2013-10-04 14:17:00,
2013-10-04 07:18:00,42.7,42.4,30.40,SW,217,0.0,1.0,99,0.00,,,0.00,WUHU216DAVISVP2,2013-10-04 14:18:00,
2013-10-04 07:21:00,42.8,42.5,30.40,East,89,0.0,1.0,99,0.00,,,0.00,WUHU216DAVISVP2,2013-10-04 14:21:00,
2013-10-04 07:22:00,42.8,42.5,30.40,East,96,0.0,1.0,99,0.00,,,0.00,WUHU216DAVISVP2,2013-10-04 14:22:00,
2013-10-04 07:23:00,42.8,42.3,30.40,SW,223,0.0,1.0,98,0.00,,,0.00,WUHU216DAVISVP2,2013-10-04 14:23:00,
2013-10-04 07:27:00,42.8,42.3,30.40,SE,143,0.0,1.0,98,0.00,,,0.00,WUHU216DAVISVP2,2013-10-04 14:27:00,
2013-10-04 07:28:00,42.8,42.3,30.40,SW,224,0.0,1.0,98,0.00,,,0.00,WUHU216DAVISVP2,2013-10-04 14:28:00,
2013-10-04 07:29:00,42.8,42.3,30.40,ESE,117,0.0,1.0,98,0.00,,,0.00,WUHU216DAVISVP2,2013-10-04 14:29:00,
2013-10-04 07:32:00,42.9,42.4,30.40,WSW,255,0.0,1.0,98,0.00,,,0.00,WUHU216DAVISVP2,2013-10-04 14:32:00,
2013-10-04 07:33:00,42.9,42.4,30.40,WSW,254,0.0,1.0,98,0.00,,,0.00,WUHU216DAVISVP2,2013-10-04 14:33:00,
2013-10-04 07:34:00,43.0,42.5,30.40,NNW,335,0.0,1.0,98,0.00,,,0.00,WUHU216DAVISVP2,2013-10-04 14:34:00,
2013-10-04 07:37:00,43.1,42.6,30.40,West,268,0.0,1.0,98,0.00,,,0.00,WUHU216DAVISVP2,2013-10-04 14:37:00,
2013-10-04 07:38:00,43.2,42.7,30.40,West,268,0.0,1.0,98,0.00,,,0.00,WUHU216DAVISVP2,2013-10-04 14:38:00,
2013-10-04 07:39:00,43.2,42.4,30.40,SSW,198,0.0,1.0,97,0.00,,,0.00,WUHU216DAVISVP2,2013-10-04 14:39:00,
2013-10-04 07:42:00,43.3,42.5,30.40,SE,129,0.0,1.0,97,0.00,,,0.00,WUHU216DAVISVP2,2013-10-04 14:42:00,
2013-10-04 07:43:00,43.3,42.5,30.40,SE,129,0.0,1.0,97,0.00,,,0.00,WUHU216DAVISVP2,2013-10-04 14:43:00,
2013-10-04 07:44:00,43.3,42.5,30.40,East,101,0.0,1.0,97,0.00,,,0.00,WUHU216DAVISVP2,2013-10-04 14:44:00,
2013-10-04 07:45:00,43.3,42.5,30.40,SSE,167,0.0,1.0,97,0.00,,,0.00,WUHU216DAVISVP2,2013-10-04 14:45:00,
2013-10-04 07:47:00,43.5,42.7,30.40,WSW,243,0.0,1.0,97,0.00,,,0.00,WUHU216DAVISVP2,2013-10-04 14:47:00,
2013-10-04 07:48:00,43.5,42.7,30.40,WSW,243,0.0,1.0,97,0.00,,,0.00,WUHU216DAVISVP2,2013-10-04 14:48:00,
2013-10-04 07:49:00,43.6,42.8,30.40,ENE,60,0.0,1.0,97,0.00,,,0.00,WUHU216DAVISVP2,2013-10-04 14:49:00,
2013-10-04 07:50:00,43.6,42.8,30.40,SE,142,0.0,1.0,97,0.00,,,0.00,WUHU216DAVISVP2,2013-10-04 14:50:00,
2013-10-04 07:53:00,43.8,42.7,30.40,SSW,209,0.0,1.0,96,0.00,,,0.00,WUHU216DAVISVP2,2013-10-04 14:53:00,
2013-10-04 07:54:00,43.8,42.7,30.40,SSW,206,0.0,1.0,96,0.00,,,0.00,WUHU216DAVISVP2,2013-10-04 14:54:00,
2013-10-04 07:55:00,43.9,42.8,30.40,SSW,206,0.0,1.0,96,0.00,,,0.00,WUHU216DAVISVP2,2013-10-04 14:55:00,
2013-10-04 07:58:00,44.0,42.9,30.40,East,101,1.0,1.0,96,0.00,,,0.00,WUHU216DAVISVP2,2013-10-04 14:58:00,
2013-10-04 07:59:00,44.0,42.9,30.40,ENE,65,0.0,1.0,96,0.00,,,0.00,WUHU216DAVISVP2,2013-10-04 14:59:00,
2013-10-04 08:00:00,44.1,43.0,30.40,SSE,149,0.0,1.0,96,0.00,,,0.00,WUHU216DAVISVP2,2013-10-04 15:00:00,
2013-10-04 08:03:00,44.3,42.9,30.40,NNE,23,0.0,2.0,95,0.00,,,0.00,WUHU216DAVISVP2,2013-10-04 15:03:00,
2013-10-04 08:04:00,44.3,42.9,30.40,ESE,107,0.0,2.0,95,0.00,,,0.00,WUHU216DAVISVP2,2013-10-04 15:04:00,
2013-10-04 08:05:00,44.3,42.9,30.40,SSW,195,0.0,2.0,95,0.00,,,0.00,WUHU216DAVISVP2,2013-10-04 15:05:00,
2013-10-04 08:08:00,44.4,43.0,30.40,SSW,200,0.0,2.0,95,0.00,,,0.00,WUHU216DAVISVP2,2013-10-04 15:08:00,
2013-10-04 08:09:00,44.5,43.2,30.40,South,174,0.0,2.0,95,0.00,,,0.00,WUHU216DAVISVP2,2013-10-04 15:09:00,
2013-10-04 08:10:00,44.5,43.2,30.40,SE,129,0.0,2.0,95,0.00,,,0.00,WUHU216DAVISVP2,2013-10-04 15:10:00,
2013-10-04 08:11:00,44.5,43.2,30.40,West,271,0.0,2.0,95,0.00,,,0.00,WUHU216DAVISVP2,2013-10-04 15:11:00,
2013-10-04 08:13:00,44.6,43.2,30.40,SSE,148,0.0,3.0,95,0.00,,,0.00,WUHU216DAVISVP2,2013-10-04 15:13:00,
2013-10-04 08:14:00,44.7,43.0,30.40,NNE,15,0.0,3.0,94,0.00,,,0.00,WUHU216DAVISVP2,2013-10-04 15:14:00,
2013-10-04 08:15:00,44.8,43.1,30.40,NNE,15,0.0,3.0,94,0.00,,,0.00,WUHU216DAVISVP2,2013-10-04 15:15:00,
2013-10-04 08:16:00,44.8,43.1,30.40,SW,219,0.0,3.0,94,0.00,,,0.00,WUHU216DAVISVP2,2013-10-04 15:16:00,
2013-10-04 08:17:00,44.9,43.2,30.40,ESE,102,0.0,3.0,94,0.00,,,0.00,WUHU216DAVISVP2,2013-10-04 15:17:00,
2013-10-04 08:18:00,44.9,43.2,30.40,SSE,148,0.0,3.0,94,0.00,,,0.00,WUHU216DAVISVP2,2013-10-04 15:18:00,
2013-10-04 08:19:00,44.9,43.2,30.40,SSE,153,0.0,3.0,94,0.00,,,0.00,WUHU216DAVISVP2,2013-10-04 15:19:00,
2013-10-04 08:20:00,45.0,43.3,30.40,SE,128,0.0,3.0,94,0.00,,,0.00,WUHU216DAVISVP2,2013-10-04 15:20:00,
2013-10-04 08:21:00,45.1,43.5,30.40,SW,227,0.0,3.0,94,0.00,,,0.00,WUHU216DAVISVP2,2013-10-04 15:21:00,
2013-10-04 08:22:00,45.0,43.4,30.40,SW,223,0.0,3.0,94,0.00,,,0.00,WUHU216DAVISVP2,2013-10-04 15:22:00,
2013-10-04 08:24:00,45.1,43.4,30.40,SW,233,0.0,3.0,94,0.00,,,0.00,WUHU216DAVISVP2,2013-10-04 15:24:00,
2013-10-04 08:25:00,45.2,43.5,30.40,WSW,258,0.0,3.0,94,0.00,,,0.00,WUHU216DAVISVP2,2013-10-04 15:25:00,
2013-10-04 08:26:00,45.2,43.3,30.40,SSE,158,0.0,3.0,93,0.00,,,0.00,WUHU216DAVISVP2,2013-10-04 15:26:00,
2013-10-04 08:27:00,45.3,43.4,30.40,WSW,245,0.0,3.0,93,0.00,,,0.00,WUHU216DAVISVP2,2013-10-04 15:27:00,
2013-10-04 08:29:00,45.4,43.4,30.40,WSW,243,0.0,3.0,93,0.00,,,0.00,WUHU216DAVISVP2,2013-10-04 15:29:00,
2013-10-04 08:30:00,45.5,43.5,30.40,ESE,118,0.0,3.0,93,0.00,,,0.00,WUHU216DAVISVP2,2013-10-04 15:30:00,
2013-10-04 08:31:00,45.6,43.6,30.41,SSE,160,0.0,3.0,93,0.00,,,0.00,WUHU216DAVISVP2,2013-10-04 15:31:00,
2013-10-04 08:32:00,45.7,43.7,30.41,SSE,160,0.0,3.0,93,0.00,,,0.00,WUHU216DAVISVP2,2013-10-04 15:32:00,
2013-10-04 08:34:00,46.1,44.1,30.41,WNW,292,0.0,1.0,93,0.00,,,0.00,WUHU216DAVISVP2,2013-10-04 15:34:00,
2013-10-04 08:35:00,46.2,44.0,30.41,West,268,0.0,1.0,92,0.00,,,0.00,WUHU216DAVISVP2,2013-10-04 15:35:00,
2013-10-04 08:36:00,46.4,44.2,30.41,North,6,0.0,2.0,92,0.00,,,0.00,WUHU216DAVISVP2,2013-10-04 15:36:00,
2013-10-04 08:37:00,46.4,44.2,30.41,ESE,110,1.0,2.0,92,0.00,,,0.00,WUHU216DAVISVP2,2013-10-04 15:37:00,
2013-10-04 08:39:00,46.6,44.1,30.41,NE,52,1.0,2.0,91,0.00,,,0.00,WUHU216DAVISVP2,2013-10-04 15:39:00,
2013-10-04 08:41:00,46.7,44.2,30.41,WNW,299,0.0,2.0,91,0.00,,,0.00,WUHU216DAVISVP2,2013-10-04 15:41:00,
2013-10-04 08:42:00,46.8,44.0,30.41,SSW,208,0.0,2.0,90,0.00,,,0.00,WUHU216DAVISVP2,2013-10-04 15:42:00,
2013-10-04 08:43:00,46.8,44.3,30.41,ESE,110,0.0,2.0,91,0.00,,,0.00,WUHU216DAVISVP2,2013-10-04 15:43:00,
2013-10-04 08:44:00,46.9,44.4,30.41,ESE,104,0.0,2.0,91,0.00,,,0.00,WUHU216DAVISVP2,2013-10-04 15:44:00,
2013-10-04 08:45:00,46.9,44.1,30.41,SE,126,0.0,2.0,90,0.00,,,0.00,WUHU216DAVISVP2,2013-10-04 15:45:00,
2013-10-04 08:46:00,46.9,44.1,30.41,SE,129,0.0,2.0,90,0.00,,,0.00,WUHU216DAVISVP2,2013-10-04 15:46:00,
2013-10-04 08:47:00,46.9,44.1,30.41,SSW,198,0.0,2.0,90,0.00,,,0.00,WUHU216DAVISVP2,2013-10-04 15:47:00,
2013-10-04 08:48:00,47.0,44.2,30.41,ESE,110,1.0,2.0,90,0.00,,,0.00,WUHU216DAVISVP2,2013-10-04 15:48:00,
2013-10-04 08:49:00,47.1,44.3,30.41,ENE,67,0.0,2.0,90,0.00,,,0.00,WUHU216DAVISVP2,2013-10-04 15:49:00,
2013-10-04 08:50:00,47.1,44.3,30.41,NE,56,0.0,2.0,90,0.00,,,0.00,WUHU216DAVISVP2,2013-10-04 15:50:00,
2013-10-04 08:51:00,47.2,44.4,30.41,West,274,0.0,2.0,90,0.00,,,0.00,WUHU216DAVISVP2,2013-10-04 15:51:00,
2013-10-04 08:52:00,47.2,44.4,30.41,West,274,0.0,2.0,90,0.00,,,0.00,WUHU216DAVISVP2,2013-10-04 15:52:00,
2013-10-04 08:53:00,47.2,44.4,30.41,West,271,0.0,2.0,90,0.00,,,0.00,WUHU216DAVISVP2,2013-10-04 15:53:00,
2013-10-04 08:54:00,47.3,44.2,30.41,West,271,0.0,2.0,89,0.00,,,0.00,WUHU216DAVISVP2,2013-10-04 15:54:00,
2013-10-04 08:55:00,47.4,44.6,30.41,SE,127,1.0,2.0,90,0.00,,,0.00,WUHU216DAVISVP2,2013-10-04 15:55:00,
2013-10-04 08:56:00,47.5,44.7,30.41,NNE,20,0.0,2.0,90,0.00,,,0.00,WUHU216DAVISVP2,2013-10-04 15:56:00,
2013-10-04 08:58:00,47.6,44.5,30.41,NE,37,0.0,2.0,89,0.00,,,0.00,WUHU216DAVISVP2,2013-10-04 15:58:00,
2013-10-04 08:59:00,47.8,44.7,30.41,East,89,0.0,2.0,89,0.00,,,0.00,WUHU216DAVISVP2,2013-10-04 15:59:00,
2013-10-04 09:01:00,48.0,44.6,30.41,SE,146,0.0,2.0,88,0.00,,,0.00,WUHU216DAVISVP2,2013-10-04 16:01:00,
2013-10-04 09:03:00,48.4,45.0,30.41,SE,130,1.0,4.0,88,0.00,,,0.00,WUHU216DAVISVP2,2013-10-04 16:03:00,
2013-10-04 09:04:00,48.5,44.8,30.41,NE,48,0.0,4.0,87,0.00,,,0.00,WUHU216DAVISVP2,2013-10-04 16:04:00,
2013-10-04 09:06:00,48.7,45.0,30.41,NE,48,1.0,4.0,87,0.00,,,0.00,WUHU216DAVISVP2,2013-10-04 16:06:00,
2013-10-04 09:07:00,48.8,45.1,30.41,SE,131,0.0,4.0,87,0.00,,,0.00,WUHU216DAVISVP2,2013-10-04 16:07:00,
2013-10-04 09:08:00,49.0,45.3,30.41,NNE,15,1.0,4.0,87,0.00,,,0.00,WUHU216DAVISVP2,2013-10-04 16:08:00,
2013-10-04 09:09:00,49.1,45.4,30.41,NNE,26,0.0,4.0,87,0.00,,,0.00,WUHU216DAVISVP2,2013-10-04 16:09:00,
2013-10-04 09:11:00,49.2,45.2,30.41,ESE,121,1.0,4.0,86,0.00,,,0.00,WUHU216DAVISVP2,2013-10-04 16:11:00,
2013-10-04 09:12:00,49.2,44.9,30.41,SE,137,0.0,4.0,85,0.00,,,0.00,WUHU216DAVISVP2,2013-10-04 16:12:00,
2013-10-04 09:13:00,49.3,45.0,30.41,NNW,342,0.0,4.0,85,0.00,,,0.00,WUHU216DAVISVP2,2013-10-04 16:13:00,
2013-10-04 09:14:00,49.3,45.3,30.41,NNE,27,1.0,4.0,86,0.00,,,0.00,WUHU216DAVISVP2,2013-10-04 16:14:00,
2013-10-04 09:15:00,49.3,45.0,30.41,NNW,338,0.0,4.0,85,0.00,,,0.00,WUHU216DAVISVP2,2013-10-04 16:15:00,
2013-10-04 09:16:00,49.3,45.0,30.41,NNE,25,1.0,4.0,85,0.00,,,0.00,WUHU216DAVISVP2,2013-10-04 16:16:00,
2013-10-04 09:18:00,49.3,45.3,30.41,South,169,0.0,4.0,86,0.00,,,0.00,WUHU216DAVISVP2,2013-10-04 16:18:00,
2013-10-04 09:19:00,49.4,45.1,30.41,NW,310,0.0,4.0,85,0.00,,,0.00,WUHU216DAVISVP2,2013-10-04 16:19:00,
2013-10-04 09:20:00,49.5,45.2,30.41,ENE,69,0.0,2.0,85,0.00,,,0.00,WUHU216DAVISVP2,2013-10-04 16:20:00,
2013-10-04 09:21:00,49.5,45.2,30.41,NNE,27,0.0,2.0,85,0.00,,,0.00,WUHU216DAVISVP2,2013-10-04 16:21:00,
2013-10-04 09:23:00,49.6,45.3,30.41,East,98,0.0,2.0,85,0.00,,,0.00,WUHU216DAVISVP2,2013-10-04 16:23:00,
2013-10-04 09:24:00,49.7,45.4,30.41,SE,135,1.0,2.0,85,0.00,,,0.00,WUHU216DAVISVP2,2013-10-04 16:24:00,
2013-10-04 09:25:00,49.7,45.4,30.41,NNE,26,0.0,2.0,85,0.00,,,0.00,WUHU216DAVISVP2,2013-10-04 16:25:00,
2013-10-04 09:26:00,49.8,45.2,30.41,East,86,1.0,2.0,84,0.00,,,0.00,WUHU216DAVISVP2,2013-10-04 16:26:00,
2013-10-04 09:28:00,49.9,45.6,30.41,ENE,63,1.0,2.0,85,0.00,,,0.00,WUHU216DAVISVP2,2013-10-04 16:28:00,
2013-10-04 09:29:00,50.0,45.4,30.41,North,354,0.0,2.0,84,0.00,,,0.00,WUHU216DAVISVP2,2013-10-04 16:29:00,
2013-10-04 09:30:00,50.0,45.4,30.41,SE,143,0.0,2.0,84,0.00,,,0.00,WUHU216DAVISVP2,2013-10-04 16:30:00,
2013-10-04 09:31:00,50.1,45.8,30.41,SE,134,0.0,2.0,85,0.00,,,0.00,WUHU216DAVISVP2,2013-10-04 16:31:00,
2013-10-04 09:33:00,50.2,45.6,30.41,NNE,20,0.0,2.0,84,0.00,,,0.00,WUHU216DAVISVP2,2013-10-04 16:33:00,
2013-10-04 09:34:00,50.3,45.7,30.41,NE,37,0.0,2.0,84,0.00,,,0.00,WUHU216DAVISVP2,2013-10-04 16:34:00,
2013-10-04 09:35:00,50.4,45.7,30.41,NW,326,1.0,2.0,84,0.00,,,0.00,WUHU216DAVISVP2,2013-10-04 16:35:00,
2013-10-04 09:36:00,50.5,45.5,30.41,NNE,32,2.0,3.0,83,0.00,,,0.00,WUHU216DAVISVP2,2013-10-04 16:36:00,
2013-10-04 09:38:00,50.5,45.2,30.41,NE,49,1.0,3.0,82,0.00,,,0.00,WUHU216DAVISVP2,2013-10-04 16:38:00,
2013-10-04 09:40:00,50.6,45.3,30.41,NNE,32,0.0,3.0,82,0.00,,,0.00,WUHU216DAVISVP2,2013-10-04 16:40:00,
2013-10-04 09:41:00,50.7,45.4,30.41,ESE,123,0.0,3.0,82,0.00,,,0.00,WUHU216DAVISVP2,2013-10-04 16:41:00,
2013-10-04 09:42:00,50.8,45.8,30.41,East,98,0.0,3.0,83,0.00,,,0.00,WUHU216DAVISVP2,2013-10-04 16:42:00,
2013-10-04 09:43:00,50.9,45.9,30.41,NNW,342,0.0,3.0,83,0.00,,,0.00,WUHU216DAVISVP2,2013-10-04 16:43:00,
2013-10-04 09:45:00,51.1,46.1,30.41,East,97,0.0,3.0,83,0.00,,,0.00,WUHU216DAVISVP2,2013-10-04 16:45:00,
2013-10-04 09:46:00,51.2,46.2,30.41,NNE,16,0.0,3.0,83,0.00,,,0.00,WUHU216DAVISVP2,2013-10-04 16:46:00,
2013-10-04 09:47:00,51.3,46.0,30.41,South,181,0.0,3.0,82,0.00,,,0.00,WUHU216DAVISVP2,2013-10-04 16:47:00,
2013-10-04 09:48:00,51.4,46.4,30.41,NE,49,3.0,4.0,83,0.00,,,0.00,WUHU216DAVISVP2,2013-10-04 16:48:00,
2013-10-04 09:50:00,51.5,45.9,30.41,SE,130,0.0,4.0,81,0.00,,,0.00,WUHU216DAVISVP2,2013-10-04 16:50:00,
2013-10-04 09:51:00,51.6,46.0,30.41,West,266,0.0,4.0,81,0.00,,,0.00,WUHU216DAVISVP2,2013-10-04 16:51:00,
2013-10-04 09:52:00,51.7,46.1,30.41,SE,141,3.0,4.0,81,0.00,,,0.00,WUHU216DAVISVP2,2013-10-04 16:52:00,
2013-10-04 09:53:00,51.8,46.2,30.41,WSW,252,0.0,4.0,81,0.00,,,0.00,WUHU216DAVISVP2,2013-10-04 16:53:00,
2013-10-04 09:55:00,51.9,46.0,30.41,SW,224,0.0,4.0,80,0.00,,,0.00,WUHU216DAVISVP2,2013-10-04 16:55:00,
2013-10-04 09:56:00,51.9,46.3,30.41,SE,141,0.0,4.0,81,0.00,,,0.00,WUHU216DAVISVP2,2013-10-04 16:56:00,
2013-10-04 09:57:00,52.0,46.4,30.41,NW,308,0.0,4.0,81,0.00,,,0.00,WUHU216DAVISVP2,2013-10-04 16:57:00,
2013-10-04 09:59:00,52.1,46.2,30.41,SE,140,1.0,4.0,80,0.00,,,0.00,WUHU216DAVISVP2,2013-10-04 16:59:00,
2013-10-04 10:00:00,52.2,46.3,30.41,SE,127,0.0,4.0,80,0.00,,,0.00,WUHU216DAVISVP2,2013-10-04 17:00:00,
2013-10-04 10:02:00,52.4,46.4,30.41,SSE,162,0.0,4.0,80,0.00,,,0.00,WUHU216DAVISVP2,2013-10-04 17:02:00,
2013-10-04 10:03:00,52.5,46.5,30.41,WNW,296,3.0,4.0,80,0.00,,,0.00,WUHU216DAVISVP2,2013-10-04 17:03:00,
2013-10-04 10:04:00,52.6,46.3,30.41,SE,138,0.0,4.0,79,0.00,,,0.00,WUHU216DAVISVP2,2013-10-04 17:04:00,
2013-10-04 10:05:00,52.7,46.4,30.42,SE,127,0.0,4.0,79,0.00,,,0.00,WUHU216DAVISVP2,2013-10-04 17:05:00,
2013-10-04 10:07:00,52.8,46.5,30.41,SSE,155,0.0,5.0,79,0.00,,,0.00,WUHU216DAVISVP2,2013-10-04 17:07:00,
2013-10-04 10:08:00,52.8,46.5,30.41,NNW,337,0.0,5.0,79,0.00,,,0.00,WUHU216DAVISVP2,2013-10-04 17:08:00,
2013-10-04 10:09:00,52.9,46.2,30.41,SSE,155,2.0,5.0,78,0.00,,,0.00,WUHU216DAVISVP2,2013-10-04 17:09:00,
2013-10-04 10:11:00,52.9,46.2,30.42,NNE,20,0.0,5.0,78,0.00,,,0.00,WUHU216DAVISVP2,2013-10-04 17:11:00,
2013-10-04 10:12:00,52.9,46.6,30.42,NW,310,0.0,5.0,79,0.00,,,0.00,WUHU216DAVISVP2,2013-10-04 17:12:00,
2013-10-04 10:13:00,53.0,46.7,30.42,NNE,24,0.0,5.0,79,0.00,,,0.00,WUHU216DAVISVP2,2013-10-04 17:13:00,
2013-10-04 10:14:00,53.0,46.3,30.42,ENE,68,1.0,5.0,78,0.00,,,0.00,WUHU216DAVISVP2,2013-10-04 17:14:00,
2013-10-04 10:16:00,53.1,46.4,30.42,SE,126,0.0,5.0,78,0.00,,,0.00,WUHU216DAVISVP2,2013-10-04 17:16:00,
2013-10-04 10:17:00,53.2,46.9,30.42,SSE,159,0.0,5.0,79,0.00,,,0.00,WUHU216DAVISVP2,2013-10-04 17:17:00,
2013-10-04 10:18:00,53.3,47.0,30.42,ENE,60,3.0,5.0,79,0.00,,,0.00,WUHU216DAVISVP2,2013-10-04 17:18:00,
2013-10-04 10:19:00,53.3,46.6,30.42,ENE,62,1.0,5.0,78,0.00,,,0.00,WUHU216DAVISVP2,2013-10-04 17:19:00,
2013-10-04 10:21:00,53.5,46.5,30.42,NNW,347,0.0,5.0,77,0.00,,,0.00,WUHU216DAVISVP2,2013-10-04 17:21:00,
2013-10-04 10:23:00,53.6,46.6,30.42,South,184,0.0,5.0,77,0.00,,,0.00,WUHU216DAVISVP2,2013-10-04 17:23:00,
2013-10-04 10:24:00,53.7,46.7,30.42,NNE,17,0.0,5.0,77,0.00,,,0.00,WUHU216DAVISVP2,2013-10-04 17:24:00,
2013-10-04 10:25:00,53.7,46.7,30.42,NW,322,0.0,4.0,77,0.00,,,0.00,WUHU216DAVISVP2,2013-10-04 17:25:00,
2013-10-04 10:26:00,53.8,46.4,30.42,NNE,20,1.0,4.0,76,0.00,,,0.00,WUHU216DAVISVP2,2013-10-04 17:26:00,
2013-10-04 10:28:00,53.8,46.4,30.42,NE,38,0.0,4.0,76,0.00,,,0.00,WUHU216DAVISVP2,2013-10-04 17:28:00,
2013-10-04 10:29:00,53.9,46.2,30.42,East,84,0.0,4.0,75,0.00,,,0.00,WUHU216DAVISVP2,2013-10-04 17:29:00,
2013-10-04 10:30:00,53.9,46.6,30.42,ENE,67,0.0,4.0,76,0.00,,,0.00,WUHU216DAVISVP2,2013-10-04 17:30:00,
2013-10-04 10:32:00,54.0,46.7,30.42,NNE,15,0.0,4.0,76,0.00,,,0.00,WUHU216DAVISVP2,2013-10-04 17:32:00,
2013-10-04 10:33:00,54.0,46.3,30.42,ENE,67,0.0,4.0,75,0.00,,,0.00,WUHU216DAVISVP2,2013-10-04 17:33:00,
2013-10-04 10:34:00,54.1,46.8,30.42,East,89,0.0,4.0,76,0.00,,,0.00,WUHU216DAVISVP2,2013-10-04 17:34:00,
2013-10-04 10:35:00,54.2,47.2,30.42,ESE,116,0.0,4.0,77,0.00,,,0.00,WUHU216DAVISVP2,2013-10-04 17:35:00,
2013-10-04 10:37:00,54.5,46.8,30.42,NW,325,0.0,4.0,75,0.00,,,0.00,WUHU216DAVISVP2,2013-10-04 17:37:00,
2013-10-04 10:59:00,55.8,47.0,30.41,North,11,1.0,5.0,72,0.00,,,0.00,WUHU216DAVISVP2,2013-10-04 17:59:00,
2013-10-04 11:00:00,55.8,47.0,30.41,ESE,120,1.0,5.0,72,0.00,,,0.00,WUHU216DAVISVP2,2013-10-04 18:00:00,
2013-10-04 11:01:00,55.9,47.1,30.41,ESE,109,0.0,5.0,72,0.00,,,0.00,WUHU216DAVISVP2,2013-10-04 18:01:00,
2013-10-04 11:02:00,56.0,47.2,30.41,ESE,121,0.0,5.0,72,0.00,,,0.00,WUHU216DAVISVP2,2013-10-04 18:02:00,
2013-10-04 11:05:00,56.3,47.5,30.41,SSE,155,1.0,5.0,72,0.00,,,0.00,WUHU216DAVISVP2,2013-10-04 18:05:00,
2013-10-04 11:06:00,56.4,47.2,30.41,ESE,103,1.0,6.0,71,0.00,,,0.00,WUHU216DAVISVP2,2013-10-04 18:06:00,
2013-10-04 11:07:00,56.4,46.9,30.41,ESE,117,1.0,6.0,70,0.00,,,0.00,WUHU216DAVISVP2,2013-10-04 18:07:00,
2013-10-04 11:10:00,56.5,46.6,30.41,NNE,17,1.0,6.0,69,0.00,,,0.00,WUHU216DAVISVP2,2013-10-04 18:10:00,
2013-10-04 11:11:00,56.5,46.6,30.41,SE,125,1.0,6.0,69,0.00,,,0.00,WUHU216DAVISVP2,2013-10-04 18:11:00,
2013-10-04 11:12:00,56.5,46.2,30.41,NE,46,2.0,6.0,68,0.00,,,0.00,WUHU216DAVISVP2,2013-10-04 18:12:00,
2013-10-04 11:16:00,56.6,46.7,30.41,NE,52,0.0,7.0,69,0.00,,,0.00,WUHU216DAVISVP2,2013-10-04 18:16:00,
2013-10-04 11:17:00,56.7,47.1,30.41,NW,309,0.0,7.0,70,0.00,,,0.00,WUHU216DAVISVP2,2013-10-04 18:17:00,
2013-10-04 11:18:00,56.7,47.1,30.40,NNW,336,0.0,7.0,70,0.00,,,0.00,WUHU216DAVISVP2,2013-10-04 18:18:00,
2013-10-04 11:21:00,57.1,46.4,30.41,ENE,59,1.0,7.0,67,0.00,,,0.00,WUHU216DAVISVP2,2013-10-04 18:21:00,
2013-10-04 11:22:00,57.2,47.3,30.41,ENE,77,0.0,7.0,69,0.00,,,0.00,WUHU216DAVISVP2,2013-10-04 18:22:00,
2013-10-04 11:23:00,57.3,47.0,30.40,North,9,0.0,7.0,68,0.00,,,0.00,WUHU216DAVISVP2,2013-10-04 18:23:00,
2013-10-04 11:26:00,57.8,47.4,30.41,West,268,0.0,7.0,68,0.00,,,0.00,WUHU216DAVISVP2,2013-10-04 18:26:00,
2013-10-04 11:27:00,57.9,47.5,30.41,West,274,0.0,7.0,68,0.00,,,0.00,WUHU216DAVISVP2,2013-10-04 18:27:00,
2013-10-04 11:28:00,58.1,47.7,30.41,NE,44,3.0,7.0,68,0.00,,,0.00,WUHU216DAVISVP2,2013-10-04 18:28:00,
2013-10-04 11:31:00,58.3,46.7,30.40,SW,228,0.0,7.0,65,0.00,,,0.00,WUHU216DAVISVP2,2013-10-04 18:31:00,
2013-10-04 11:32:00,58.4,46.8,30.40,SE,136,1.0,7.0,65,0.00,,,0.00,WUHU216DAVISVP2,2013-10-04 18:32:00,
2013-10-04 11:33:00,58.5,46.9,30.40,ENE,72,0.0,7.0,65,0.00,,,0.00,WUHU216DAVISVP2,2013-10-04 18:33:00,
2013-10-04 11:34:00,58.5,47.3,30.40,SE,130,2.0,7.0,66,0.00,,,0.00,WUHU216DAVISVP2,2013-10-04 18:34:00,
2013-10-04 11:37:00,58.6,46.6,30.40,ESE,105,1.0,4.0,64,0.00,,,0.00,WUHU216DAVISVP2,2013-10-04 18:37:00,
2013-10-04 11:38:00,58.6,47.0,30.40,West,278,0.0,4.0,65,0.00,,,0.00,WUHU216DAVISVP2,2013-10-04 18:38:00,
2013-10-04 11:39:00,58.7,47.5,30.40,NE,41,0.0,4.0,66,0.00,,,0.00,WUHU216DAVISVP2,2013-10-04 18:39:00,
2013-10-04 11:42:00,59.0,47.8,30.40,SSE,149,0.0,4.0,66,0.00,,,0.00,WUHU216DAVISVP2,2013-10-04 18:42:00,
2013-10-04 11:43:00,59.1,47.5,30.40,East,101,0.0,4.0,65,0.00,,,0.00,WUHU216DAVISVP2,2013-10-04 18:43:00,
2013-10-04 11:44:00,59.2,46.7,30.40,ESE,108,0.0,4.0,63,0.00,,,0.00,WUHU216DAVISVP2,2013-10-04 18:44:00,
2013-10-04 11:47:00,59.4,46.5,30.39,WSW,242,0.0,6.0,62,0.00,,,0.00,WUHU216DAVISVP2,2013-10-04 18:47:00,
2013-10-04 11:48:00,59.5,47.9,30.39,SW,231,0.0,6.0,65,0.00,,,0.00,WUHU216DAVISVP2,2013-10-04 18:48:00,
2013-10-04 11:49:00,59.6,48.0,30.39,East,101,0.0,6.0,65,0.00,,,0.00,WUHU216DAVISVP2,2013-10-04 18:49:00,
2013-10-04 11:52:00,59.8,46.9,30.39,SSE,154,0.0,6.0,62,0.00,,,0.00,WUHU216DAVISVP2,2013-10-04 18:52:00,
2013-10-04 11:53:00,59.9,47.3,30.39,NE,39,0.0,6.0,63,0.00,,,0.00,WUHU216DAVISVP2,2013-10-04 18:53:00,
2013-10-04 11:54:00,60.1,46.6,30.39,SSE,155,1.0,6.0,61,0.00,,,0.00,WUHU216DAVISVP2,2013-10-04 18:54:00,
2013-10-04 11:55:00,60.1,47.0,30.39,SE,138,0.0,6.0,62,0.00,,,0.00,WUHU216DAVISVP2,2013-10-04 18:55:00,
2013-10-04 11:57:00,60.2,46.3,30.39,ESE,103,0.0,6.0,60,0.00,,,0.00,WUHU216DAVISVP2,2013-10-04 18:57:00,
2013-10-04 11:58:00,60.3,47.2,30.39,ESE,108,0.0,6.0,62,0.00,,,0.00,WUHU216DAVISVP2,2013-10-04 18:58:00,
2013-10-04 11:59:00,60.5,47.0,30.39,NNE,24,0.0,6.0,61,0.00,,,0.00,WUHU216DAVISVP2,2013-10-04 18:59:00,
2013-10-04 12:00:00,60.5,47.1,30.39,NNE,20,0.0,6.0,61,0.00,,,0.00,WUHU216DAVISVP2,2013-10-04 19:00:00,
2013-10-04 12:02:00,60.8,47.3,30.39,NE,34,0.0,6.0,61,0.00,,,0.00,WUHU216DAVISVP2,2013-10-04 19:02:00,
2013-10-04 12:03:00,60.9,47.4,30.39,North,11,1.0,6.0,61,0.00,,,0.00,WUHU216DAVISVP2,2013-10-04 19:03:00,
2013-10-04 12:04:00,61.1,47.5,30.39,NNE,16,0.0,4.0,61,0.00,,,0.00,WUHU216DAVISVP2,2013-10-04 19:04:00,
2013-10-04 12:05:00,61.1,47.5,30.39,ENE,72,0.0,4.0,61,0.00,,,0.00,WUHU216DAVISVP2,2013-10-04 19:05:00,
2013-10-04 12:07:00,61.3,46.8,30.39,East,88,2.0,4.0,59,0.00,,,0.00,WUHU216DAVISVP2,2013-10-04 19:07:00,
2013-10-04 12:09:00,61.4,46.5,30.39,NE,38,0.0,4.0,58,0.00,,,0.00,WUHU216DAVISVP2,2013-10-04 19:09:00,
2013-10-04 12:10:00,61.4,46.0,30.39,NW,307,0.0,4.0,57,0.00,,,0.00,WUHU216DAVISVP2,2013-10-04 19:10:00,
2013-10-04 12:11:00,61.5,46.1,30.39,North,6,0.0,5.0,57,0.00,,,0.00,WUHU216DAVISVP2,2013-10-04 19:11:00,
2013-10-04 12:12:00,61.6,46.8,30.39,NNE,27,1.0,5.0,58,0.00,,,0.00,WUHU216DAVISVP2,2013-10-04 19:12:00,
2013-10-04 12:14:00,61.7,46.9,30.39,NNE,18,0.0,5.0,58,0.00,,,0.00,WUHU216DAVISVP2,2013-10-04 19:14:00,
2013-10-04 12:15:00,61.7,46.9,30.39,NNW,338,1.0,5.0,58,0.00,,,0.00,WUHU216DAVISVP2,2013-10-04 19:15:00,
2013-10-04 12:16:00,61.7,46.4,30.39,NNE,15,0.0,5.0,57,0.00,,,0.00,WUHU216DAVISVP2,2013-10-04 19:16:00,
2013-10-04 12:17:00,61.8,47.4,30.39,WNW,290,0.0,5.0,59,0.00,,,0.00,WUHU216DAVISVP2,2013-10-04 19:17:00,
2013-10-04 12:20:00,62.1,46.8,30.39,NNE,33,3.0,5.0,57,0.00,,,0.00,WUHU216DAVISVP2,2013-10-04 19:20:00,
2013-10-04 12:21:00,62.2,46.4,30.39,North,11,0.0,5.0,56,0.00,,,0.00,WUHU216DAVISVP2,2013-10-04 19:21:00,
2013-10-04 12:22:00,62.2,46.9,30.39,NNE,32,0.0,5.0,57,0.00,,,0.00,WUHU216DAVISVP2,2013-10-04 19:22:00,
2013-10-04 12:25:00,62.4,46.6,30.39,NE,41,2.0,5.0,56,0.00,,,0.00,WUHU216DAVISVP2,2013-10-04 19:25:00,
2013-10-04 12:26:00,62.5,45.7,30.39,ENE,63,0.0,5.0,54,0.00,,,0.00,WUHU216DAVISVP2,2013-10-04 19:26:00,
2013-10-04 12:27:00,62.5,46.7,30.39,NW,304,0.0,5.0,56,0.00,,,0.00,WUHU216DAVISVP2,2013-10-04 19:27:00,
2013-10-04 12:30:00,62.6,45.8,30.38,NE,46,0.0,5.0,54,0.00,,,0.00,WUHU216DAVISVP2,2013-10-04 19:30:00,
2013-10-04 12:31:00,62.6,46.3,30.38,East,98,0.0,5.0,55,0.00,,,0.00,WUHU216DAVISVP2,2013-10-04 19:31:00,
2013-10-04 12:32:00,62.7,47.4,30.38,NW,307,0.0,5.0,57,0.00,,,0.00,WUHU216DAVISVP2,2013-10-04 19:32:00,
2013-10-04 12:35:00,62.9,45.6,30.38,NNW,344,0.0,5.0,53,0.00,,,0.00,WUHU216DAVISVP2,2013-10-04 19:35:00,
2013-10-04 12:36:00,62.8,45.5,30.38,NE,55,0.0,5.0,53,0.00,,,0.00,WUHU216DAVISVP2,2013-10-04 19:36:00,
2013-10-04 12:37:00,62.8,46.5,30.38,NE,55,0.0,5.0,55,0.00,,,0.00,WUHU216DAVISVP2,2013-10-04 19:37:00,
2013-10-04 12:40:00,63.1,46.3,30.38,NNE,15,0.0,5.0,54,0.00,,,0.00,WUHU216DAVISVP2,2013-10-04 19:40:00,
2013-10-04 12:41:00,63.2,46.4,30.38,NE,51,2.0,5.0,54,0.00,,,0.00,WUHU216DAVISVP2,2013-10-04 19:41:00,
2013-10-04 12:42:00,63.2,45.9,30.38,NE,34,0.0,5.0,53,0.00,,,0.00,WUHU216DAVISVP2,2013-10-04 19:42:00,
2013-10-04 12:43:00,63.2,45.9,30.38,SSE,167,1.0,5.0,53,0.00,,,0.00,WUHU216DAVISVP2,2013-10-04 19:43:00,
2013-10-04 12:45:00,63.3,45.4,30.38,ENE,68,1.0,5.0,52,0.00,,,0.00,WUHU216DAVISVP2,2013-10-04 19:45:00,
2013-10-04 12:47:00,63.4,47.0,30.38,NNE,13,0.0,5.0,55,0.00,,,0.00,WUHU216DAVISVP2,2013-10-04 19:47:00,
2013-10-04 12:48:00,63.4,45.0,30.38,West,260,0.0,4.0,51,0.00,,,0.00,WUHU216DAVISVP2,2013-10-04 19:48:00,
2013-10-04 12:51:00,63.5,46.1,30.38,NNE,20,1.0,4.0,53,0.00,,,0.00,WUHU216DAVISVP2,2013-10-04 19:51:00,
2013-10-04 12:52:00,63.5,46.1,30.38,WSW,250,0.0,4.0,53,0.00,,,0.00,WUHU216DAVISVP2,2013-10-04 19:52:00,
2013-10-04 12:53:00,63.6,46.2,30.38,North,6,0.0,4.0,53,0.00,,,0.00,WUHU216DAVISVP2,2013-10-04 19:53:00,
2013-10-04 12:54:00,63.7,45.8,30.38,NE,45,1.0,4.0,52,0.00,,,0.00,WUHU216DAVISVP2,2013-10-04 19:54:00,
2013-10-04 12:56:00,64.0,47.1,30.38,NNE,14,0.0,4.0,54,0.00,,,0.00,WUHU216DAVISVP2,2013-10-04 19:56:00,
2013-10-04 12:57:00,64.1,47.2,30.38,West,265,0.0,4.0,54,0.00,,,0.00,WUHU216DAVISVP2,2013-10-04 19:57:00,
2013-10-04 12:58:00,64.3,46.9,30.38,West,278,0.0,4.0,53,0.00,,,0.00,WUHU216DAVISVP2,2013-10-04 19:58:00,
2013-10-04 12:59:00,64.6,46.6,30.38,ESE,105,0.0,4.0,52,0.00,,,0.00,WUHU216DAVISVP2,2013-10-04 19:59:00,
2013-10-04 13:02:00,65.1,46.0,30.38,ENE,75,0.0,4.0,50,0.00,,,0.00,WUHU216DAVISVP2,2013-10-04 20:02:00,
2013-10-04 13:03:00,65.2,47.2,30.38,ENE,60,0.0,4.0,52,0.00,,,0.00,WUHU216DAVISVP2,2013-10-04 20:03:00,
2013-10-04 13:04:00,65.3,46.8,30.38,ESE,108,1.0,4.0,51,0.00,,,0.00,WUHU216DAVISVP2,2013-10-04 20:04:00,
2013-10-04 13:07:00,65.5,45.3,30.38,ENE,61,0.0,4.0,48,0.00,,,0.00,WUHU216DAVISVP2,2013-10-04 20:07:00,
2013-10-04 13:08:00,65.6,45.9,30.38,SE,137,1.0,4.0,49,0.00,,,0.00,WUHU216DAVISVP2,2013-10-04 20:08:00,
2013-10-04 13:10:00,65.8,46.6,30.38,NNE,23,0.0,3.0,50,0.00,,,0.00,WUHU216DAVISVP2,2013-10-04 20:10:00,
2013-10-04 13:12:00,66.0,45.7,30.38,East,87,0.0,3.0,48,0.00,,,0.00,WUHU216DAVISVP2,2013-10-04 20:12:00,
2013-10-04 13:13:00,66.0,45.7,30.38,East,96,0.0,3.0,48,0.00,,,0.00,WUHU216DAVISVP2,2013-10-04 20:13:00,
2013-10-04 13:14:00,66.2,45.9,30.38,SE,126,0.0,3.0,48,0.00,,,0.00,WUHU216DAVISVP2,2013-10-04 20:14:00,
2013-10-04 13:15:00,66.3,45.5,30.38,ENE,65,3.0,3.0,47,0.00,,,0.00,WUHU216DAVISVP2,2013-10-04 20:15:00,
2013-10-04 13:17:00,66.2,44.8,30.38,NNE,12,0.0,4.0,46,0.00,,,0.00,WUHU216DAVISVP2,2013-10-04 20:17:00,
2013-10-04 13:18:00,66.2,45.4,30.38,NE,48,0.0,4.0,47,0.00,,,0.00,WUHU216DAVISVP2,2013-10-04 20:18:00,
2013-10-04 13:19:00,66.1,44.7,30.38,NNE,18,0.0,4.0,46,0.00,,,0.00,WUHU216DAVISVP2,2013-10-04 20:19:00,
2013-10-04 13:20:00,66.0,44.6,30.38,North,358,0.0,4.0,46,0.00,,,0.00,WUHU216DAVISVP2,2013-10-04 20:20:00,
2013-10-04 13:22:00,66.0,44.6,30.38,ENE,58,0.0,4.0,46,0.00,,,0.00,WUHU216DAVISVP2,2013-10-04 20:22:00,
2013-10-04 13:23:00,65.9,44.5,30.38,ENE,63,3.0,4.0,46,0.00,,,0.00,WUHU216DAVISVP2,2013-10-04 20:23:00,
2013-10-04 13:24:00,65.8,43.8,30.38,East,86,1.0,5.0,45,0.00,,,0.00,WUHU216DAVISVP2,2013-10-04 20:24:00,
2013-10-04 13:26:00,65.7,44.3,30.38,NE,50,2.0,5.0,46,0.00,,,0.00,WUHU216DAVISVP2,2013-10-04 20:26:00,
2013-10-04 13:27:00,65.7,44.3,30.38,NNE,33,0.0,5.0,46,0.00,,,0.00,WUHU216DAVISVP2,2013-10-04 20:27:00,
2013-10-04 13:28:00,65.7,44.9,30.38,North,2,0.0,5.0,47,0.00,,,0.00,WUHU216DAVISVP2,2013-10-04 20:28:00,
2013-10-04 13:29:00,65.7,46.0,30.38,ENE,60,1.0,5.0,49,0.00,,,0.00,WUHU216DAVISVP2,2013-10-04 20:29:00,
2013-10-04 13:30:00,65.7,44.3,30.38,NE,53,1.0,5.0,46,0.00,,,0.00,WUHU216DAVISVP2,2013-10-04 20:30:00,
2013-10-04 13:31:00,65.7,44.9,30.37,ESE,108,0.0,5.0,47,0.00,,,0.00,WUHU216DAVISVP2,2013-10-04 20:31:00,
2013-10-04 13:32:00,65.8,45.0,30.37,ENE,59,0.0,5.0,47,0.00,,,0.00,WUHU216DAVISVP2,2013-10-04 20:32:00,
2013-10-04 13:33:00,65.8,44.4,30.37,North,359,0.0,5.0,46,0.00,,,0.00,WUHU216DAVISVP2,2013-10-04 20:33:00,
2013-10-04 13:34:00,65.9,44.5,30.37,SW,234,0.0,5.0,46,0.00,,,0.00,WUHU216DAVISVP2,2013-10-04 20:34:00,
2013-10-04 13:35:00,65.9,45.1,30.37,East,86,1.0,5.0,47,0.00,,,0.00,WUHU216DAVISVP2,2013-10-04 20:35:00,
2013-10-04 13:37:00,66.0,43.4,30.37,NW,319,1.0,5.0,44,0.00,,,0.00,WUHU216DAVISVP2,2013-10-04 20:37:00,
2013-10-04 13:38:00,65.9,43.3,30.37,NE,44,0.0,5.0,44,0.00,,,0.00,WUHU216DAVISVP2,2013-10-04 20:38:00,
2013-10-04 13:39:00,65.9,44.5,30.37,ESE,111,0.0,5.0,46,0.00,,,0.00,WUHU216DAVISVP2,2013-10-04 20:39:00,
2013-10-04 13:40:00,65.9,43.9,30.37,North,360,0.0,5.0,45,0.00,,,0.00,WUHU216DAVISVP2,2013-10-04 20:40:00,
2013-10-04 13:42:00,66.1,45.3,30.37,ENE,70,0.0,4.0,47,0.00,,,0.00,WUHU216DAVISVP2,2013-10-04 20:42:00,
2013-10-04 13:43:00,66.2,45.4,30.37,NNW,345,0.0,4.0,47,0.00,,,0.00,WUHU216DAVISVP2,2013-10-04 20:43:00,
2013-10-04 13:44:00,66.2,44.2,30.37,ENE,68,3.0,4.0,45,0.00,,,0.00,WUHU216DAVISVP2,2013-10-04 20:44:00,
2013-10-04 13:45:00,66.2,43.0,30.37,NE,41,1.0,5.0,43,0.00,,,0.00,WUHU216DAVISVP2,2013-10-04 20:45:00,
2013-10-04 13:47:00,66.1,43.5,30.37,NE,34,1.0,5.0,44,0.00,,,0.00,WUHU216DAVISVP2,2013-10-04 20:47:00,
2013-10-04 13:48:00,66.1,43.5,30.37,North,4,0.0,5.0,44,0.00,,,0.00,WUHU216DAVISVP2,2013-10-04 20:48:00,
2013-10-04 13:49:00,66.2,44.8,30.36,NNE,31,0.0,5.0,46,0.00,,,0.00,WUHU216DAVISVP2,2013-10-04 20:49:00,
2013-10-04 13:50:00,66.3,45.4,30.36,NNW,335,1.0,5.0,47,0.00,,,0.00,WUHU216DAVISVP2,2013-10-04 20:50:00,
2013-10-04 13:52:00,66.5,43.2,30.37,NE,45,1.0,5.0,43,0.00,,,0.00,WUHU216DAVISVP2,2013-10-04 20:52:00,
2013-10-04 13:53:00,66.5,43.8,30.37,NE,56,1.0,5.0,44,0.00,,,0.00,WUHU216DAVISVP2,2013-10-04 20:53:00,
2013-10-04 13:54:00,66.5,43.2,30.37,NNE,15,0.0,5.0,43,0.00,,,0.00,WUHU216DAVISVP2,2013-10-04 20:54:00,
2013-10-04 13:55:00,66.5,43.8,30.37,ENE,61,0.0,5.0,44,0.00,,,0.00,WUHU216DAVISVP2,2013-10-04 20:55:00,
2013-10-04 13:57:00,66.5,43.8,30.37,NE,56,0.0,5.0,44,0.00,,,0.00,WUHU216DAVISVP2,2013-10-04 20:57:00,
2013-10-04 13:58:00,66.5,43.8,30.37,NW,326,1.0,5.0,44,0.00,,,0.00,WUHU216DAVISVP2,2013-10-04 20:58:00,
2013-10-04 13:59:00,66.6,43.3,30.37,ENE,72,1.0,5.0,43,0.00,,,0.00,WUHU216DAVISVP2,2013-10-04 20:59:00,
2013-10-04 14:00:00,66.6,43.3,30.37,NW,309,1.0,5.0,43,0.00,,,0.00,WUHU216DAVISVP2,2013-10-04 21:00:00,
2013-10-04 14:01:00,66.6,42.7,30.37,NNW,344,3.0,5.0,42,0.00,,,0.00,WUHU216DAVISVP2,2013-10-04 21:01:00,
2013-10-04 14:03:00,66.5,42.6,30.36,ENE,76,2.0,4.0,42,0.00,,,0.00,WUHU216DAVISVP2,2013-10-04 21:03:00,
2013-10-04 14:04:00,66.7,42.8,30.36,ENE,72,0.0,4.0,42,0.00,,,0.00,WUHU216DAVISVP2,2013-10-04 21:04:00,
2013-10-04 14:05:00,66.7,42.8,30.36,SSE,148,0.0,4.0,42,0.00,,,0.00,WUHU216DAVISVP2,2013-10-04 21:05:00,
2013-10-04 14:06:00,66.7,42.8,30.36,North,6,0.0,4.0,42,0.00,,,0.00,WUHU216DAVISVP2,2013-10-04 21:06:00,
2013-10-04 14:08:00,67.0,43.7,30.36,East,80,1.0,4.0,43,0.00,,,0.00,WUHU216DAVISVP2,2013-10-04 21:08:00,
2013-10-04 14:09:00,67.1,43.1,30.36,NE,48,0.0,4.0,42,0.00,,,0.00,WUHU216DAVISVP2,2013-10-04 21:09:00,
2013-10-04 14:10:00,67.2,43.9,30.36,North,358,0.0,4.0,43,0.00,,,0.00,WUHU216DAVISVP2,2013-10-04 21:10:00,
2013-10-04 14:11:00,67.3,43.3,30.36,East,96,0.0,4.0,42,0.00,,,0.00,WUHU216DAVISVP2,2013-10-04 21:11:00,
2013-10-04 14:14:00,67.5,43.5,30.36,SSE,158,1.0,5.0,42,0.00,,,0.00,WUHU216DAVISVP2,2013-10-04 21:14:00,
2013-10-04 14:15:00,67.5,43.5,30.36,ENE,58,0.0,5.0,42,0.00,,,0.00,WUHU216DAVISVP2,2013-10-04 21:15:00,
2013-10-04 14:16:00,67.6,43.6,30.36,West,266,0.0,5.0,42,0.00,,,0.00,WUHU216DAVISVP2,2013-10-04 21:16:00,
2013-10-04 14:19:00,68.2,44.1,30.36,West,265,0.0,5.0,42,0.00,,,0.00,WUHU216DAVISVP2,2013-10-04 21:19:00,
2013-10-04 14:20:00,68.4,44.9,30.36,ENE,63,0.0,5.0,43,0.00,,,0.00,WUHU216DAVISVP2,2013-10-04 21:20:00,
2013-10-04 14:21:00,68.5,45.0,30.36,NW,315,2.0,5.0,43,0.00,,,0.00,WUHU216DAVISVP2,2013-10-04 21:21:00,
2013-10-04 14:22:00,68.5,46.9,30.36,WNW,299,1.0,5.0,46,0.00,,,0.00,WUHU216DAVISVP2,2013-10-04 21:22:00,
2013-10-04 14:24:00,68.3,48.4,30.36,ENE,68,0.0,5.0,49,0.00,,,0.00,WUHU216DAVISVP2,2013-10-04 21:24:00,
2013-10-04 14:25:00,68.3,48.4,30.36,West,263,0.0,5.0,49,0.00,,,0.00,WUHU216DAVISVP2,2013-10-04 21:25:00,
2013-10-04 14:27:00,68.2,48.8,30.36,ENE,77,0.0,5.0,50,0.00,,,0.00,WUHU216DAVISVP2,2013-10-04 21:27:00,
2013-10-04 14:28:00,68.1,49.8,30.35,ESE,117,0.0,5.0,52,0.00,,,0.00,WUHU216DAVISVP2,2013-10-04 21:28:00,
2013-10-04 14:29:00,67.9,49.6,30.35,NNE,25,0.0,5.0,52,0.00,,,0.00,WUHU216DAVISVP2,2013-10-04 21:29:00,
2013-10-04 14:30:00,67.8,49.6,30.35,NNE,14,0.0,5.0,52,0.00,,,0.00,WUHU216DAVISVP2,2013-10-04 21:30:00,
2013-10-04 14:31:00,67.6,49.4,30.35,North,359,0.0,5.0,52,0.00,,,0.00,WUHU216DAVISVP2,2013-10-04 21:31:00,
2013-10-04 14:32:00,67.5,49.9,30.35,ENE,60,0.0,5.0,53,0.00,,,0.00,WUHU216DAVISVP2,2013-10-04 21:32:00,
2013-10-04 14:33:00,67.4,49.8,30.35,North,351,0.0,4.0,53,0.00,,,0.00,WUHU216DAVISVP2,2013-10-04 21:33:00,
2013-10-04 14:34:00,67.2,49.6,30.35,NE,44,0.0,4.0,53,0.00,,,0.00,WUHU216DAVISVP2,2013-10-04 21:34:00,
2013-10-04 14:35:00,67.1,49.5,30.35,WNW,296,1.0,4.0,53,0.00,,,0.00,WUHU216DAVISVP2,2013-10-04 21:35:00,
2013-10-04 14:36:00,67.0,49.4,30.35,WNW,292,0.0,4.0,53,0.00,,,0.00,WUHU216DAVISVP2,2013-10-04 21:36:00,
2013-10-04 14:37:00,66.9,49.8,30.35,NNE,15,0.0,4.0,54,0.00,,,0.00,WUHU216DAVISVP2,2013-10-04 21:37:00,
2013-10-04 14:38:00,66.8,49.7,30.35,North,3,1.0,4.0,54,0.00,,,0.00,WUHU216DAVISVP2,2013-10-04 21:38:00,
2013-10-04 14:39:00,66.7,49.6,30.35,NW,317,0.0,4.0,54,0.00,,,0.00,WUHU216DAVISVP2,2013-10-04 21:39:00,
2013-10-04 14:40:00,66.6,50.0,30.35,NE,43,0.0,3.0,55,0.00,,,0.00,WUHU216DAVISVP2,2013-10-04 21:40:00,
2013-10-04 14:42:00,66.6,49.5,30.35,NNE,19,0.0,2.0,54,0.00,,,0.00,WUHU216DAVISVP2,2013-10-04 21:42:00,
2013-10-04 14:44:00,66.6,50.0,30.35,North,10,0.0,2.0,55,0.00,,,0.00,WUHU216DAVISVP2,2013-10-04 21:44:00,
2013-10-04 14:45:00,66.5,49.9,30.35,NNE,27,0.0,2.0,55,0.00,,,0.00,WUHU216DAVISVP2,2013-10-04 21:45:00,
2013-10-04 14:47:00,66.5,50.4,30.35,North,6,1.0,2.0,56,0.00,,,0.00,WUHU216DAVISVP2,2013-10-04 21:47:00,
2013-10-04 14:48:00,66.5,49.9,30.35,North,6,1.0,2.0,55,0.00,,,0.00,WUHU216DAVISVP2,2013-10-04 21:48:00,
2013-10-04 14:49:00,66.6,50.0,30.35,NNW,342,0.0,2.0,55,0.00,,,0.00,WUHU216DAVISVP2,2013-10-04 21:49:00,
2013-10-04 14:50:00,66.6,49.5,30.35,NW,313,0.0,2.0,54,0.00,,,0.00,WUHU216DAVISVP2,2013-10-04 21:50:00,
2013-10-04 14:52:00,66.6,50.5,30.35,NW,316,0.0,4.0,56,0.00,,,0.00,WUHU216DAVISVP2,2013-10-04 21:52:00,
2013-10-04 14:53:00,66.6,50.5,30.35,West,264,1.0,4.0,56,0.00,,,0.00,WUHU216DAVISVP2,2013-10-04 21:53:00,
2013-10-04 14:54:00,66.7,50.6,30.35,WSW,249,2.0,4.0,56,0.00,,,0.00,WUHU216DAVISVP2,2013-10-04 21:54:00,
2013-10-04 14:55:00,66.7,50.1,30.35,North,5,0.0,4.0,55,0.00,,,0.00,WUHU216DAVISVP2,2013-10-04 21:55:00,
2013-10-04 14:56:00,66.8,50.2,30.35,North,5,0.0,4.0,55,0.00,,,0.00,WUHU216DAVISVP2,2013-10-04 21:56:00,
2013-10-04 14:57:00,66.9,50.3,30.35,West,274,0.0,4.0,55,0.00,,,0.00,WUHU216DAVISVP2,2013-10-04 21:57:00,
2013-10-04 14:58:00,66.9,50.3,30.35,NNW,333,0.0,4.0,55,0.00,,,0.00,WUHU216DAVISVP2,2013-10-04 21:58:00,
2013-10-04 14:59:00,67.0,50.4,30.35,NW,313,1.0,4.0,55,0.00,,,0.00,WUHU216DAVISVP2,2013-10-04 21:59:00,
2013-10-04 15:00:00,67.0,50.4,30.35,NW,308,0.0,4.0,55,0.00,,,0.00,WUHU216DAVISVP2,2013-10-04 22:00:00,
2013-10-04 15:01:00,66.9,50.3,30.35,NW,309,0.0,4.0,55,0.00,,,0.00,WUHU216DAVISVP2,2013-10-04 22:01:00,
2013-10-04 15:03:00,67.1,51.0,30.35,NNW,334,0.0,4.0,56,0.00,,,0.00,WUHU216DAVISVP2,2013-10-04 22:03:00,
2013-10-04 15:05:00,67.5,51.4,30.34,NNW,340,0.0,4.0,56,0.00,,,0.00,WUHU216DAVISVP2,2013-10-04 22:05:00,
2013-10-04 15:06:00,67.7,51.6,30.34,WNW,295,0.0,4.0,56,0.00,,,0.00,WUHU216DAVISVP2,2013-10-04 22:06:00,
2013-10-04 15:08:00,67.9,51.8,30.34,West,279,0.0,4.0,56,0.00,,,0.00,WUHU216DAVISVP2,2013-10-04 22:08:00,
2013-10-04 15:10:00,67.9,50.2,30.34,West,264,0.0,3.0,53,0.00,,,0.00,WUHU216DAVISVP2,2013-10-04 22:10:00,
2013-10-04 15:11:00,67.9,50.7,30.34,West,281,1.0,3.0,54,0.00,,,0.00,WUHU216DAVISVP2,2013-10-04 22:11:00,
2013-10-04 15:12:00,67.7,50.6,30.34,NE,41,0.0,3.0,54,0.00,,,0.00,WUHU216DAVISVP2,2013-10-04 22:12:00,
2013-10-04 15:13:00,67.6,51.5,30.34,North,1,0.0,3.0,56,0.00,,,0.00,WUHU216DAVISVP2,2013-10-04 22:13:00,
2013-10-04 15:14:00,67.6,51.5,30.34,WNW,295,1.0,3.0,56,0.00,,,0.00,WUHU216DAVISVP2,2013-10-04 22:14:00,
2013-10-04 15:15:00,67.7,51.1,30.34,West,277,1.0,3.0,55,0.00,,,0.00,WUHU216DAVISVP2,2013-10-04 22:15:00,
2013-10-04 15:16:00,67.6,51.0,30.34,West,281,0.0,3.0,55,0.00,,,0.00,WUHU216DAVISVP2,2013-10-04 22:16:00,
2013-10-04 15:17:00,67.6,51.0,30.34,North,11,0.0,3.0,55,0.00,,,0.00,WUHU216DAVISVP2,2013-10-04 22:17:00,
2013-10-04 15:18:00,67.6,51.5,30.34,WNW,291,4.0,5.0,56,0.00,,,0.00,WUHU216DAVISVP2,2013-10-04 22:18:00,
2013-10-04 15:19:00,67.5,51.2,30.34,NW,304,0.0,5.0,56,0.00,,,0.00,WUHU216DAVISVP2,2013-10-04 22:19:00,
2013-10-04 15:20:00,67.4,51.2,30.34,ENE,70,0.0,5.0,56,0.00,,,0.00,WUHU216DAVISVP2,2013-10-04 22:20:00,
2013-10-04 15:21:00,67.4,51.2,30.34,NNE,22,0.0,5.0,56,0.00,,,0.00,WUHU216DAVISVP2,2013-10-04 22:21:00,
2013-10-04 15:22:00,67.4,51.6,30.34,SE,130,0.0,5.0,57,0.00,,,0.00,WUHU216DAVISVP2,2013-10-04 22:22:00,
2013-10-04 15:23:00,67.3,51.1,30.34,North,1,0.0,5.0,56,0.00,,,0.00,WUHU216DAVISVP2,2013-10-04 22:23:00,
2013-10-04 15:24:00,67.4,51.2,30.34,North,4,0.0,5.0,56,0.00,,,0.00,WUHU216DAVISVP2,2013-10-04 22:24:00,
2013-10-04 15:25:00,67.3,51.1,30.34,WNW,294,1.0,5.0,56,0.00,,,0.00,WUHU216DAVISVP2,2013-10-04 22:25:00,
2013-10-04 15:26:00,67.4,51.2,30.34,NW,315,1.0,5.0,56,0.00,,,0.00,WUHU216DAVISVP2,2013-10-04 22:26:00,
2013-10-04 15:27:00,67.3,51.5,30.34,NW,309,0.0,5.0,57,0.00,,,0.00,WUHU216DAVISVP2,2013-10-04 22:27:00,
2013-10-04 15:29:00,67.4,52.3,30.34,WNW,298,1.0,5.0,58,0.00,,,0.00,WUHU216DAVISVP2,2013-10-04 22:29:00,
2013-10-04 15:31:00,67.4,52.1,30.34,WNW,288,1.0,5.0,58,0.00,,,0.00,WUHU216DAVISVP2,2013-10-04 22:31:00,
2013-10-04 15:32:00,67.1,51.5,30.34,West,266,2.0,5.0,57,0.00,,,0.00,WUHU216DAVISVP2,2013-10-04 22:32:00,
2013-10-04 15:34:00,66.7,51.6,30.34,WNW,297,4.0,5.0,58,0.00,,,0.00,WUHU216DAVISVP2,2013-10-04 22:34:00,
2013-10-04 15:36:00,66.4,51.8,30.34,WNW,293,0.0,5.0,59,0.00,,,0.00,WUHU216DAVISVP2,2013-10-04 22:36:00,
2013-10-04 15:37:00,66.3,52.2,30.34,WSW,246,0.0,5.0,60,0.00,,,0.00,WUHU216DAVISVP2,2013-10-04 22:37:00,
2013-10-04 15:38:00,66.3,51.7,30.34,West,281,0.0,5.0,59,0.00,,,0.00,WUHU216DAVISVP2,2013-10-04 22:38:00,
2013-10-04 15:39:00,66.3,52.2,30.34,WNW,294,0.0,5.0,60,0.00,,,0.00,WUHU216DAVISVP2,2013-10-04 22:39:00,
2013-10-04 15:41:00,66.4,52.7,30.34,NW,323,0.0,5.0,61,0.00,,,0.00,WUHU216DAVISVP2,2013-10-04 22:41:00,
2013-10-04 15:42:00,66.5,52.8,30.34,WNW,293,3.0,5.0,61,0.00,,,0.00,WUHU216DAVISVP2,2013-10-04 22:42:00,
2013-10-04 15:43:00,66.3,52.2,30.34,WNW,299,2.0,6.0,60,0.00,,,0.00,WUHU216DAVISVP2,2013-10-04 22:43:00,
2013-10-04 15:45:00,66.2,53.0,30.34,West,268,0.0,6.0,62,0.00,,,0.00,WUHU216DAVISVP2,2013-10-04 22:45:00,
2013-10-04 15:46:00,66.4,52.7,30.34,NNW,343,0.0,6.0,61,0.00,,,0.00,WUHU216DAVISVP2,2013-10-04 22:46:00,
2013-10-04 15:47:00,66.5,53.2,30.34,WNW,290,0.0,6.0,62,0.00,,,0.00,WUHU216DAVISVP2,2013-10-04 22:47:00,
2013-10-04 15:48:00,66.6,53.3,30.34,West,261,1.0,6.0,62,0.00,,,0.00,WUHU216DAVISVP2,2013-10-04 22:48:00,
2013-10-04 15:50:00,66.7,53.0,30.34,West,259,3.0,6.0,61,0.00,,,0.00,WUHU216DAVISVP2,2013-10-04 22:50:00,
2013-10-04 15:51:00,66.6,53.3,30.34,NW,320,1.0,6.0,62,0.00,,,0.00,WUHU216DAVISVP2,2013-10-04 22:51:00,
2013-10-04 15:52:00,66.4,52.7,30.34,WSW,252,1.0,6.0,61,0.00,,,0.00,WUHU216DAVISVP2,2013-10-04 22:52:00,
2013-10-04 15:53:00,66.3,52.6,30.34,North,358,0.0,6.0,61,0.00,,,0.00,WUHU216DAVISVP2,2013-10-04 22:53:00,
2013-10-04 15:55:00,66.1,52.9,30.34,North,4,0.0,6.0,62,0.00,,,0.00,WUHU216DAVISVP2,2013-10-04 22:55:00,
2013-10-04 15:56:00,66.3,53.1,30.34,NNW,337,0.0,6.0,62,0.00,,,0.00,WUHU216DAVISVP2,2013-10-04 22:56:00,
2013-10-04 15:57:00,66.3,53.5,30.34,NE,36,1.0,6.0,63,0.00,,,0.00,WUHU216DAVISVP2,2013-10-04 22:57:00,
2013-10-04 15:58:00,66.4,52.7,30.34,NW,306,2.0,6.0,61,0.00,,,0.00,WUHU216DAVISVP2,2013-10-04 22:58:00,
2013-10-04 16:00:00,66.2,53.0,30.34,NNE,18,1.0,6.0,62,0.00,,,0.00,WUHU216DAVISVP2,2013-10-04 23:00:00,
2013-10-04 16:02:00,66.0,53.2,30.34,North,356,0.0,5.0,63,0.00,,,0.00,WUHU216DAVISVP2,2013-10-04 23:02:00,
2013-10-04 16:03:00,65.8,53.0,30.34,North,7,2.0,5.0,63,0.00,,,0.00,WUHU216DAVISVP2,2013-10-04 23:03:00,
2013-10-04 16:04:00,65.6,53.3,30.34,NE,53,0.0,5.0,64,0.00,,,0.00,WUHU216DAVISVP2,2013-10-04 23:04:00,
2013-10-04 16:05:00,65.4,53.1,30.34,NNE,16,1.0,5.0,64,0.00,,,0.00,WUHU216DAVISVP2,2013-10-04 23:05:00,
2013-10-04 16:07:00,65.2,52.9,30.34,NNE,15,0.0,5.0,64,0.00,,,0.00,WUHU216DAVISVP2,2013-10-04 23:07:00,
2013-10-04 16:08:00,65.1,53.2,30.34,WNW,290,0.0,5.0,65,0.00,,,0.00,WUHU216DAVISVP2,2013-10-04 23:08:00,
2013-10-04 16:09:00,65.1,53.6,30.34,West,262,0.0,5.0,66,0.00,,,0.00,WUHU216DAVISVP2,2013-10-04 23:09:00,
2013-10-04 16:10:00,65.1,54.0,30.34,East,98,1.0,3.0,67,0.00,,,0.00,WUHU216DAVISVP2,2013-10-04 23:10:00,
2013-10-04 16:12:00,65.2,53.7,30.34,North,10,0.0,3.0,66,0.00,,,0.00,WUHU216DAVISVP2,2013-10-04 23:12:00,
2013-10-04 16:13:00,65.2,53.7,30.34,NNE,23,0.0,3.0,66,0.00,,,0.00,WUHU216DAVISVP2,2013-10-04 23:13:00,
2013-10-04 16:14:00,65.2,53.3,30.33,NNW,327,0.0,3.0,65,0.00,,,0.00,WUHU216DAVISVP2,2013-10-04 23:14:00,
2013-10-04 16:15:00,65.3,53.4,30.33,South,172,0.0,3.0,65,0.00,,,0.00,WUHU216DAVISVP2,2013-10-04 23:15:00,
2013-10-04 16:17:00,65.5,54.0,30.34,NNE,17,0.0,3.0,66,0.00,,,0.00,WUHU216DAVISVP2,2013-10-04 23:17:00,
2013-10-04 16:18:00,65.5,52.7,30.34,NE,41,0.0,3.0,63,0.00,,,0.00,WUHU216DAVISVP2,2013-10-04 23:18:00,
2013-10-04 16:19:00,65.3,53.0,30.34,North,358,0.0,3.0,64,0.00,,,0.00,WUHU216DAVISVP2,2013-10-04 23:19:00,
2013-10-04 16:20:00,65.2,52.9,30.34,North,354,0.0,3.0,64,0.00,,,0.00,WUHU216DAVISVP2,2013-10-04 23:20:00,
2013-10-04 16:22:00,65.0,53.1,30.34,West,264,2.0,2.0,65,0.00,,,0.00,WUHU216DAVISVP2,2013-10-04 23:22:00,
2013-10-04 16:23:00,64.9,53.0,30.34,North,9,0.0,2.0,65,0.00,,,0.00,WUHU216DAVISVP2,2013-10-04 23:23:00,
2013-10-04 16:24:00,64.9,53.0,30.34,WSW,249,0.0,2.0,65,0.00,,,0.00,WUHU216DAVISVP2,2013-10-04 23:24:00,
2013-10-04 16:25:00,65.0,53.1,30.34,North,356,0.0,2.0,65,0.00,,,0.00,WUHU216DAVISVP2,2013-10-04 23:25:00,
2013-10-04 16:27:00,65.0,53.1,30.34,WSW,248,3.0,3.0,65,0.00,,,0.00,WUHU216DAVISVP2,2013-10-04 23:27:00,
2013-10-04 16:29:00,64.9,53.0,30.34,North,9,0.0,3.0,65,0.00,,,0.00,WUHU216DAVISVP2,2013-10-04 23:29:00,
2013-10-04 16:30:00,64.9,53.0,30.34,NNE,19,0.0,3.0,65,0.00,,,0.00,WUHU216DAVISVP2,2013-10-04 23:30:00,
2013-10-04 16:31:00,64.8,52.9,30.34,NW,321,0.0,3.0,65,0.00,,,0.00,WUHU216DAVISVP2,2013-10-04 23:31:00,
2013-10-04 16:32:00,64.7,53.2,30.34,North,6,0.0,3.0,66,0.00,,,0.00,WUHU216DAVISVP2,2013-10-04 23:32:00,
2013-10-04 16:34:00,64.6,52.7,30.34,NNW,343,0.0,3.0,65,0.00,,,0.00,WUHU216DAVISVP2,2013-10-04 23:34:00,
2013-10-04 16:35:00,64.6,52.6,30.34,NW,314,1.0,3.0,65,0.00,,,0.00,WUHU216DAVISVP2,2013-10-04 23:35:00,
2013-10-04 16:36:00,64.5,52.0,30.34,NE,45,1.0,3.0,64,0.00,,,0.00,WUHU216DAVISVP2,2013-10-04 23:36:00,
2013-10-04 16:37:00,64.4,52.4,30.34,NNW,343,0.0,3.0,65,0.00,,,0.00,WUHU216DAVISVP2,2013-10-04 23:37:00,
2013-10-04 16:39:00,64.5,53.1,30.33,NNW,333,0.0,3.0,66,0.00,,,0.00,WUHU216DAVISVP2,2013-10-04 23:39:00,
2013-10-04 16:40:00,64.5,53.1,30.33,West,278,1.0,3.0,66,0.00,,,0.00,WUHU216DAVISVP2,2013-10-04 23:40:00,
2013-10-04 16:41:00,64.7,53.1,30.33,WNW,288,1.0,3.0,66,0.00,,,0.00,WUHU216DAVISVP2,2013-10-04 23:41:00,
2013-10-04 16:42:00,64.8,52.8,30.34,NNE,14,0.0,3.0,65,0.00,,,0.00,WUHU216DAVISVP2,2013-10-04 23:42:00,
2013-10-04 16:44:00,65.0,52.5,30.33,NW,304,2.0,3.0,64,0.00,,,0.00,WUHU216DAVISVP2,2013-10-04 23:44:00,
2013-10-04 16:45:00,65.0,52.1,30.33,SE,128,0.0,3.0,63,0.00,,,0.00,WUHU216DAVISVP2,2013-10-04 23:45:00,
2013-10-04 16:46:00,65.0,52.5,30.33,NNE,23,0.0,3.0,64,0.00,,,0.00,WUHU216DAVISVP2,2013-10-04 23:46:00,
2013-10-04 16:47:00,65.1,52.2,30.33,NNW,340,0.0,3.0,63,0.00,,,0.00,WUHU216DAVISVP2,2013-10-04 23:47:00,
2013-10-04 16:49:00,65.1,52.4,30.33,NE,45,0.0,3.0,63,0.00,,,0.00,WUHU216DAVISVP2,2013-10-04 23:49:00,
2013-10-04 16:50:00,65.1,52.2,30.33,NNW,337,0.0,3.0,63,0.00,,,0.00,WUHU216DAVISVP2,2013-10-04 23:50:00,
2013-10-04 16:51:00,65.1,52.4,30.33,WNW,293,0.0,3.0,63,0.00,,,0.00,WUHU216DAVISVP2,2013-10-04 23:51:00,
2013-10-04 16:52:00,65.1,51.9,30.33,West,275,0.0,3.0,62,0.00,,,0.00,WUHU216DAVISVP2,2013-10-04 23:52:00,
2013-10-04 16:54:00,65.2,52.0,30.33,NNW,341,0.0,3.0,62,0.00,,,0.00,WUHU216DAVISVP2,2013-10-04 23:54:00,
2013-10-04 16:55:00,65.2,52.5,30.33,NW,326,0.0,3.0,63,0.00,,,0.00,WUHU216DAVISVP2,2013-10-04 23:55:00,
2013-10-04 16:56:00,65.2,52.0,30.33,NNE,23,0.0,3.0,62,0.00,,,0.00,WUHU216DAVISVP2,2013-10-04 23:56:00,
2013-10-04 16:57:00,65.1,51.9,30.33,North,1,0.0,3.0,62,0.00,,,0.00,WUHU216DAVISVP2,2013-10-04 23:57:00,
2013-10-04 16:59:00,65.1,52.4,30.33,NNW,330,0.0,3.0,63,0.00,,,0.00,WUHU216DAVISVP2,2013-10-04 23:59:00,
2013-10-04 17:00:00,65.1,52.4,30.33,NW,307,0.0,3.0,63,0.00,,,0.00,WUHU216DAVISVP2,2013-10-05 00:00:00,
2013-10-04 17:01:00,65.2,52.5,30.33,WSW,254,1.0,3.0,63,0.00,,,0.00,WUHU216DAVISVP2,2013-10-05 00:01:00,
2013-10-04 17:02:00,65.2,52.5,30.34,NW,316,0.0,3.0,63,0.00,,,0.00,WUHU216DAVISVP2,2013-10-05 00:02:00,
2013-10-04 17:05:00,65.4,52.6,30.33,NNW,328,1.0,3.0,63,0.00,,,0.00,WUHU216DAVISVP2,2013-10-05 00:05:00,
2013-10-04 17:06:00,65.3,51.7,30.33,NNW,336,0.0,3.0,61,0.00,,,0.00,WUHU216DAVISVP2,2013-10-05 00:06:00,
2013-10-04 17:07:00,65.3,51.7,30.33,NW,307,0.0,3.0,61,0.00,,,0.00,WUHU216DAVISVP2,2013-10-05 00:07:00,
2013-10-04 17:10:00,65.1,51.5,30.33,North,354,1.0,3.0,61,0.00,,,0.00,WUHU216DAVISVP2,2013-10-05 00:10:00,
2013-10-04 17:11:00,65.1,51.9,30.33,WNW,285,0.0,3.0,62,0.00,,,0.00,WUHU216DAVISVP2,2013-10-05 00:11:00,
2013-10-04 17:12:00,65.1,51.9,30.33,NNE,32,2.0,3.0,62,0.00,,,0.00,WUHU216DAVISVP2,2013-10-05 00:12:00,
2013-10-04 17:15:00,65.1,52.4,30.33,West,281,1.0,3.0,63,0.00,,,0.00,WUHU216DAVISVP2,2013-10-05 00:15:00,
2013-10-04 17:16:00,65.1,52.4,30.33,WNW,293,1.0,3.0,63,0.00,,,0.00,WUHU216DAVISVP2,2013-10-05 00:16:00,
2013-10-04 17:17:00,65.0,52.3,30.33,NW,308,0.0,3.0,63,0.00,,,0.00,WUHU216DAVISVP2,2013-10-05 00:17:00,
2013-10-04 17:21:00,65.2,52.9,30.33,NW,318,0.0,3.0,64,0.00,,,0.00,WUHU216DAVISVP2,2013-10-05 00:21:00,
2013-10-04 17:22:00,65.2,52.9,30.33,WSW,245,3.0,3.0,64,0.00,,,0.00,WUHU216DAVISVP2,2013-10-05 00:22:00,
2013-10-04 17:23:00,65.1,52.4,30.33,North,354,0.0,3.0,63,0.00,,,0.00,WUHU216DAVISVP2,2013-10-05 00:23:00,
2013-10-04 17:26:00,64.7,52.4,30.33,West,269,0.0,3.0,64,0.00,,,0.00,WUHU216DAVISVP2,2013-10-05 00:26:00,
2013-10-04 17:27:00,64.7,52.8,30.33,NW,312,0.0,3.0,65,0.00,,,0.00,WUHU216DAVISVP2,2013-10-05 00:27:00,
2013-10-04 17:28:00,64.6,52.7,30.33,NW,315,0.0,3.0,65,0.00,,,0.00,WUHU216DAVISVP2,2013-10-05 00:28:00,
2013-10-04 17:29:00,64.5,53.1,30.33,WSW,252,1.0,3.0,66,0.00,,,0.00,WUHU216DAVISVP2,2013-10-05 00:29:00,
2013-10-04 17:31:00,64.4,53.0,30.33,WNW,302,1.0,3.0,66,0.00,,,0.00,WUHU216DAVISVP2,2013-10-05 00:31:00,
2013-10-04 17:32:00,64.3,52.9,30.33,NNW,336,0.0,3.0,66,0.00,,,0.00,WUHU216DAVISVP2,2013-10-05 00:32:00,
2013-10-04 17:33:00,64.2,52.8,30.33,NW,319,0.0,3.0,66,0.00,,,0.00,WUHU216DAVISVP2,2013-10-05 00:33:00,
2013-10-04 17:34:00,64.1,53.1,30.33,North,4,0.0,3.0,67,0.00,,,0.00,WUHU216DAVISVP2,2013-10-05 00:34:00,
2013-10-04 17:36:00,63.9,53.3,30.33,NW,319,0.0,3.0,68,0.00,,,0.00,WUHU216DAVISVP2,2013-10-05 00:36:00,
2013-10-04 17:37:00,63.8,53.2,30.33,North,351,0.0,3.0,68,0.00,,,0.00,WUHU216DAVISVP2,2013-10-05 00:37:00,
2013-10-04 17:38:00,63.8,53.2,30.33,North,356,0.0,3.0,68,0.00,,,0.00,WUHU216DAVISVP2,2013-10-05 00:38:00,
2013-10-04 17:39:00,63.8,53.6,30.33,NW,308,0.0,3.0,69,0.00,,,0.00,WUHU216DAVISVP2,2013-10-05 00:39:00,
2013-10-04 17:42:00,63.9,53.7,30.33,West,281,0.0,3.0,69,0.00,,,0.00,WUHU216DAVISVP2,2013-10-05 00:42:00,
2013-10-04 17:43:00,63.9,53.7,30.33,NW,308,1.0,3.0,69,0.00,,,0.00,WUHU216DAVISVP2,2013-10-05 00:43:00,
2013-10-04 17:44:00,63.9,53.7,30.33,North,1,0.0,3.0,69,0.00,,,0.00,WUHU216DAVISVP2,2013-10-05 00:44:00,
2013-10-04 17:45:00,63.8,53.6,30.33,WNW,287,0.0,2.0,69,0.00,,,0.00,WUHU216DAVISVP2,2013-10-05 00:45:00,
2013-10-04 17:47:00,63.5,53.7,30.33,NW,309,0.0,2.0,70,0.00,,,0.00,WUHU216DAVISVP2,2013-10-05 00:47:00,
2013-10-04 17:48:00,63.3,53.5,30.33,WNW,292,0.0,2.0,70,0.00,,,0.00,WUHU216DAVISVP2,2013-10-05 00:48:00,
2013-10-04 17:49:00,63.2,53.8,30.33,West,266,0.0,2.0,71,0.00,,,0.00,WUHU216DAVISVP2,2013-10-05 00:49:00,
2013-10-04 17:50:00,63.2,53.8,30.32,West,281,1.0,2.0,71,0.00,,,0.00,WUHU216DAVISVP2,2013-10-05 00:50:00,
2013-10-04 17:52:00,63.2,53.8,30.32,WNW,283,0.0,2.0,71,0.00,,,0.00,WUHU216DAVISVP2,2013-10-05 00:52:00,
2013-10-04 17:53:00,63.2,53.8,30.32,WNW,283,0.0,2.0,71,0.00,,,0.00,WUHU216DAVISVP2,2013-10-05 00:53:00,
2013-10-04 17:54:00,63.3,53.9,30.32,North,6,0.0,2.0,71,0.00,,,0.00,WUHU216DAVISVP2,2013-10-05 00:54:00,
2013-10-04 17:55:00,63.4,54.0,30.32,West,281,0.0,2.0,71,0.00,,,0.00,WUHU216DAVISVP2,2013-10-05 00:55:00,
2013-10-04 17:57:00,63.6,54.2,30.32,West,260,0.0,2.0,71,0.00,,,0.00,WUHU216DAVISVP2,2013-10-05 00:57:00,
2013-10-04 17:58:00,63.6,54.2,30.32,West,260,0.0,2.0,71,0.00,,,0.00,WUHU216DAVISVP2,2013-10-05 00:58:00,
2013-10-04 17:59:00,63.6,54.2,30.32,West,260,0.0,2.0,71,0.00,,,0.00,WUHU216DAVISVP2,2013-10-05 00:59:00,
2013-10-04 18:00:00,63.7,54.3,30.32,West,260,0.0,2.0,71,0.00,,,0.00,WUHU216DAVISVP2,2013-10-05 01:00:00,
2013-10-04 18:03:00,63.6,54.2,30.32,WNW,282,0.0,2.0,71,0.00,,,0.00,WUHU216DAVISVP2,2013-10-05 01:03:00,
2013-10-04 18:04:00,63.6,54.2,30.32,West,281,0.0,2.0,71,0.00,,,0.00,WUHU216DAVISVP2,2013-10-05 01:04:00,
2013-10-04 18:05:00,63.6,54.2,30.32,NW,306,0.0,2.0,71,0.00,,,0.00,WUHU216DAVISVP2,2013-10-05 01:05:00,
2013-10-04 18:06:00,63.6,54.2,30.32,NW,306,0.0,2.0,71,0.00,,,0.00,WUHU216DAVISVP2,2013-10-05 01:06:00,
2013-10-04 18:08:00,63.8,54.4,30.32,NW,306,0.0,2.0,71,0.00,,,0.00,WUHU216DAVISVP2,2013-10-05 01:08:00,
2013-10-04 18:09:00,63.9,54.5,30.32,NW,306,0.0,2.0,71,0.00,,,0.00,WUHU216DAVISVP2,2013-10-05 01:09:00,
2013-10-04 18:10:00,64.0,54.6,30.32,NW,304,0.0,2.0,71,0.00,,,0.00,WUHU216DAVISVP2,2013-10-05 01:10:00,
2013-10-04 18:14:00,64.3,54.5,30.32,SW,225,0.0,2.0,70,0.00,,,0.00,WUHU216DAVISVP2,2013-10-05 01:14:00,
2013-10-04 18:15:00,64.3,54.1,30.32,East,80,0.0,1.0,69,0.00,,,0.00,WUHU216DAVISVP2,2013-10-05 01:15:00,
2013-10-04 18:16:00,64.2,54.0,30.32,NE,52,0.0,1.0,69,0.00,,,0.00,WUHU216DAVISVP2,2013-10-05 01:16:00,
2013-10-04 18:19:00,63.7,53.9,30.32,NE,52,0.0,1.0,70,0.00,,,0.00,WUHU216DAVISVP2,2013-10-05 01:19:00,
2013-10-04 18:20:00,63.6,54.2,30.32,NE,52,0.0,1.0,71,0.00,,,0.00,WUHU216DAVISVP2,2013-10-05 01:20:00,
2013-10-04 18:21:00,63.6,54.0,30.32,NE,52,0.0,1.0,71,0.00,,,0.00,WUHU216DAVISVP2,2013-10-05 01:21:00,
2013-10-04 18:24:00,63.6,54.2,30.31,NNE,16,0.0,1.0,71,0.00,,,0.00,WUHU216DAVISVP2,2013-10-05 01:24:00,
2013-10-04 18:25:00,63.5,54.1,30.32,NNE,16,0.0,1.0,71,0.00,,,0.00,WUHU216DAVISVP2,2013-10-05 01:25:00,
2013-10-04 18:27:00,63.0,53.4,30.32,West,272,0.0,1.0,71,0.00,,,0.00,WUHU216DAVISVP2,2013-10-05 01:27:00,
2013-10-04 18:29:00,62.6,53.6,30.31,West,274,0.0,1.0,72,0.00,,,0.00,WUHU216DAVISVP2,2013-10-05 01:29:00,
2013-10-04 18:30:00,62.5,53.5,30.31,West,274,0.0,1.0,72,0.00,,,0.00,WUHU216DAVISVP2,2013-10-05 01:30:00,
2013-10-04 18:31:00,62.3,53.7,30.31,West,266,0.0,1.0,73,0.00,,,0.00,WUHU216DAVISVP2,2013-10-05 01:31:00,
2013-10-04 18:32:00,61.8,53.5,30.32,WSW,257,0.0,1.0,74,0.00,,,0.00,WUHU216DAVISVP2,2013-10-05 01:32:00,
2013-10-04 18:34:00,61.4,53.2,30.31,WSW,258,0.0,1.0,74,0.00,,,0.00,WUHU216DAVISVP2,2013-10-05 01:34:00,
2013-10-04 18:35:00,61.3,53.4,30.32,WSW,257,0.0,1.0,75,0.00,,,0.00,WUHU216DAVISVP2,2013-10-05 01:35:00,
2013-10-04 18:36:00,61.1,53.1,30.31,WSW,257,0.0,1.0,75,0.00,,,0.00,WUHU216DAVISVP2,2013-10-05 01:36:00,
2013-10-04 18:38:00,60.9,53.3,30.31,WSW,258,0.0,1.0,76,0.00,,,0.00,WUHU216DAVISVP2,2013-10-05 01:38:00,
2013-10-04 18:39:00,60.8,53.3,30.31,WSW,258,0.0,1.0,76,0.00,,,0.00,WUHU216DAVISVP2,2013-10-05 01:39:00,
2013-10-04 18:40:00,60.8,53.6,30.31,WSW,258,0.0,1.0,77,0.00,,,0.00,WUHU216DAVISVP2,2013-10-05 01:40:00,
2013-10-04 18:42:00,60.7,53.5,30.31,WSW,258,0.0,1.0,77,0.00,,,0.00,WUHU216DAVISVP2,2013-10-05 01:42:00,
2013-10-04 18:43:00,60.6,53.4,30.31,WSW,257,0.0,1.0,77,0.00,,,0.00,WUHU216DAVISVP2,2013-10-05 01:43:00,
2013-10-04 18:44:00,60.3,53.1,30.31,WSW,258,0.0,1.0,77,0.00,,,0.00,WUHU216DAVISVP2,2013-10-05 01:44:00,
2013-10-04 18:45:00,60.3,53.1,30.31,WSW,257,0.0,1.0,77,0.00,,,0.00,WUHU216DAVISVP2,2013-10-05 01:45:00,
2013-10-04 18:46:00,60.1,53.3,30.31,WSW,258,0.0,1.0,78,0.00,,,0.00,WUHU216DAVISVP2,2013-10-05 01:46:00,
2013-10-04 18:47:00,60.1,53.3,30.31,WSW,257,0.0,1.0,78,0.00,,,0.00,WUHU216DAVISVP2,2013-10-05 01:47:00,
2013-10-04 18:48:00,59.9,53.0,30.31,WSW,258,0.0,1.0,78,0.00,,,0.00,WUHU216DAVISVP2,2013-10-05 01:48:00,
2013-10-04 18:50:00,59.6,53.1,30.31,WSW,257,0.0,0.0,79,0.00,,,0.00,WUHU216DAVISVP2,2013-10-05 01:50:00,
2013-10-04 18:52:00,59.3,52.9,30.31,WSW,257,0.0,0.0,79,0.00,,,0.00,WUHU216DAVISVP2,2013-10-05 01:52:00,
2013-10-04 18:53:00,59.1,53.0,30.31,WSW,257,0.0,0.0,80,0.00,,,0.00,WUHU216DAVISVP2,2013-10-05 01:53:00,
2013-10-04 18:55:00,58.8,53.0,30.31,WSW,258,0.0,0.0,81,0.00,,,0.00,WUHU216DAVISVP2,2013-10-05 01:55:00,
2013-10-04 18:57:00,58.5,52.7,30.31,WSW,258,0.0,0.0,81,0.00,,,0.00,WUHU216DAVISVP2,2013-10-05 01:57:00,
2013-10-04 18:58:00,58.3,52.5,30.31,WSW,258,0.0,0.0,81,0.00,,,0.00,WUHU216DAVISVP2,2013-10-05 01:58:00,
2013-10-04 19:00:00,58.1,52.3,30.31,WSW,258,0.0,0.0,81,0.00,,,0.00,WUHU216DAVISVP2,2013-10-05 02:00:00,
2013-10-04 19:01:00,58.0,52.5,30.31,WSW,257,0.0,0.0,82,0.00,,,0.00,WUHU216DAVISVP2,2013-10-05 02:01:00,
2013-10-04 19:02:00,57.8,52.4,30.32,WSW,258,0.0,0.0,82,0.00,,,0.00,WUHU216DAVISVP2,2013-10-05 02:02:00,
2013-10-04 19:03:00,57.6,52.5,30.31,WSW,258,0.0,0.0,83,0.00,,,0.00,WUHU216DAVISVP2,2013-10-05 02:03:00,
2013-10-04 19:05:00,57.3,52.5,30.32,WSW,258,0.0,0.0,84,0.00,,,0.00,WUHU216DAVISVP2,2013-10-05 02:05:00,
2013-10-04 19:06:00,57.2,52.4,30.32,WSW,258,0.0,0.0,84,0.00,,,0.00,WUHU216DAVISVP2,2013-10-05 02:06:00,
2013-10-04 19:07:00,57.0,52.2,30.32,WSW,257,0.0,0.0,84,0.00,,,0.00,WUHU216DAVISVP2,2013-10-05 02:07:00,
2013-10-04 19:08:00,57.0,52.2,30.32,WSW,257,0.0,0.0,84,0.00,,,0.00,WUHU216DAVISVP2,2013-10-05 02:08:00,
2013-10-04 19:10:00,56.6,52.1,30.32,WSW,258,0.0,0.0,85,0.00,,,0.00,WUHU216DAVISVP2,2013-10-05 02:10:00,
2013-10-04 19:11:00,56.5,52.0,30.32,WSW,257,0.0,0.0,85,0.00,,,0.00,WUHU216DAVISVP2,2013-10-05 02:11:00,
2013-10-04 19:12:00,56.3,51.8,30.32,WSW,258,0.0,0.0,85,0.00,,,0.00,WUHU216DAVISVP2,2013-10-05 02:12:00,
2013-10-04 19:13:00,56.3,51.8,30.32,WSW,258,0.0,0.0,85,0.00,,,0.00,WUHU216DAVISVP2,2013-10-05 02:13:00,
2013-10-04 19:14:00,56.1,51.7,30.32,WSW,258,0.0,0.0,85,0.00,,,0.00,WUHU216DAVISVP2,2013-10-05 02:14:00,
2013-10-04 19:16:00,55.9,51.8,30.32,WSW,257,0.0,0.0,86,0.00,,,0.00,WUHU216DAVISVP2,2013-10-05 02:16:00,
2013-10-04 19:17:00,55.7,51.6,30.32,WSW,258,0.0,0.0,86,0.00,,,0.00,WUHU216DAVISVP2,2013-10-05 02:17:00,
2013-10-04 19:18:00,55.7,51.6,30.32,WSW,258,0.0,0.0,86,0.00,,,0.00,WUHU216DAVISVP2,2013-10-05 02:18:00,
2013-10-04 19:20:00,55.4,51.6,30.32,WSW,257,0.0,0.0,87,0.00,,,0.00,WUHU216DAVISVP2,2013-10-05 02:20:00,
2013-10-04 19:21:00,55.4,51.6,30.32,WSW,258,0.0,0.0,87,0.00,,,0.00,WUHU216DAVISVP2,2013-10-05 02:21:00,
2013-10-04 19:22:00,55.3,51.5,30.32,WSW,258,0.0,0.0,87,0.00,,,0.00,WUHU216DAVISVP2,2013-10-05 02:22:00,
2013-10-04 19:23:00,55.2,51.7,30.32,WSW,257,0.0,0.0,88,0.00,,,0.00,WUHU216DAVISVP2,2013-10-05 02:23:00,
2013-10-04 19:24:00,55.0,51.5,30.32,WSW,258,0.0,0.0,88,0.00,,,0.00,WUHU216DAVISVP2,2013-10-05 02:24:00,
2013-10-04 19:25:00,54.9,51.4,30.32,WSW,258,0.0,0.0,88,0.00,,,0.00,WUHU216DAVISVP2,2013-10-05 02:25:00,
2013-10-04 19:26:00,54.9,51.7,30.32,WSW,257,0.0,0.0,89,0.00,,,0.00,WUHU216DAVISVP2,2013-10-05 02:26:00,
2013-10-04 19:27:00,54.7,51.5,30.32,WSW,258,0.0,0.0,89,0.00,,,0.00,WUHU216DAVISVP2,2013-10-05 02:27:00,
2013-10-04 19:28:00,54.7,51.5,30.31,WSW,258,0.0,0.0,89,0.00,,,0.00,WUHU216DAVISVP2,2013-10-05 02:28:00,
2013-10-04 19:30:00,54.5,51.3,30.32,WSW,258,0.0,0.0,89,0.00,,,0.00,WUHU216DAVISVP2,2013-10-05 02:30:00,
2013-10-04 19:31:00,54.4,51.2,30.32,WSW,258,0.0,0.0,89,0.00,,,0.00,WUHU216DAVISVP2,2013-10-05 02:31:00,
2013-10-04 19:32:00,54.3,51.1,30.32,WSW,258,0.0,0.0,89,0.00,,,0.00,WUHU216DAVISVP2,2013-10-05 02:32:00,
2013-10-04 19:33:00,54.2,51.0,30.32,WSW,257,0.0,0.0,89,0.00,,,0.00,WUHU216DAVISVP2,2013-10-05 02:33:00,
2013-10-04 19:35:00,54.0,50.8,30.32,WSW,257,0.0,0.0,89,0.00,,,0.00,WUHU216DAVISVP2,2013-10-05 02:35:00,
2013-10-04 19:36:00,54.0,51.1,30.32,WSW,258,0.0,0.0,90,0.00,,,0.00,WUHU216DAVISVP2,2013-10-05 02:36:00,
2013-10-04 19:37:00,53.9,51.0,30.32,WSW,258,0.0,0.0,90,0.00,,,0.00,WUHU216DAVISVP2,2013-10-05 02:37:00,
2013-10-04 19:39:00,53.7,50.8,30.32,WSW,258,0.0,0.0,90,0.00,,,0.00,WUHU216DAVISVP2,2013-10-05 02:39:00,
2013-10-04 19:40:00,53.6,50.7,30.32,WSW,258,0.0,0.0,90,0.00,,,0.00,WUHU216DAVISVP2,2013-10-05 02:40:00,
2013-10-04 19:41:00,53.5,50.6,30.32,WSW,258,0.0,0.0,90,0.00,,,0.00,WUHU216DAVISVP2,2013-10-05 02:41:00,
2013-10-04 19:42:00,53.4,50.5,30.32,WSW,257,0.0,0.0,90,0.00,,,0.00,WUHU216DAVISVP2,2013-10-05 02:42:00,
2013-10-04 19:44:00,53.2,50.3,30.32,WSW,258,0.0,0.0,90,0.00,,,0.00,WUHU216DAVISVP2,2013-10-05 02:44:00,
2013-10-04 19:46:00,53.0,50.1,30.32,WSW,257,0.0,0.0,90,0.00,,,0.00,WUHU216DAVISVP2,2013-10-05 02:46:00,
2013-10-04 19:47:00,53.0,50.1,30.32,WSW,258,0.0,0.0,90,0.00,,,0.00,WUHU216DAVISVP2,2013-10-05 02:47:00,
2013-10-04 19:48:00,52.9,50.3,30.32,WSW,258,0.0,0.0,91,0.00,,,0.00,WUHU216DAVISVP2,2013-10-05 02:48:00,
2013-10-04 19:49:00,52.9,50.6,30.32,WSW,257,0.0,0.0,92,0.00,,,0.00,WUHU216DAVISVP2,2013-10-05 02:49:00,
2013-10-04 19:51:00,52.8,50.5,30.32,WSW,258,0.0,0.0,92,0.00,,,0.00,WUHU216DAVISVP2,2013-10-05 02:51:00,
2013-10-04 19:52:00,52.8,50.5,30.32,WSW,258,0.0,0.0,92,0.00,,,0.00,WUHU216DAVISVP2,2013-10-05 02:52:00,
2013-10-04 19:53:00,52.7,50.4,30.32,WSW,257,0.0,0.0,92,0.00,,,0.00,WUHU216DAVISVP2,2013-10-05 02:53:00,
2013-10-04 19:56:00,52.5,50.2,30.32,WSW,258,0.0,0.0,92,0.00,,,0.00,WUHU216DAVISVP2,2013-10-05 02:56:00,
2013-10-04 19:57:00,52.4,50.1,30.32,WSW,257,0.0,0.0,92,0.00,,,0.00,WUHU216DAVISVP2,2013-10-05 02:57:00,
2013-10-04 19:58:00,52.3,50.0,30.32,WSW,258,0.0,0.0,92,0.00,,,0.00,WUHU216DAVISVP2,2013-10-05 02:58:00,
2013-10-04 20:01:00,52.1,49.8,30.32,WSW,257,0.0,0.0,92,0.00,,,0.00,WUHU216DAVISVP2,2013-10-05 03:01:00,
2013-10-04 20:02:00,52.0,49.7,30.32,WSW,258,0.0,0.0,92,0.00,,,0.00,WUHU216DAVISVP2,2013-10-05 03:02:00,
2013-10-04 20:03:00,52.0,49.7,30.32,WSW,258,0.0,0.0,92,0.00,,,0.00,WUHU216DAVISVP2,2013-10-05 03:03:00,
2013-10-04 20:06:00,51.8,49.8,30.32,WSW,258,0.0,0.0,93,0.00,,,0.00,WUHU216DAVISVP2,2013-10-05 03:06:00,
2013-10-04 20:07:00,51.8,49.8,30.32,WSW,258,0.0,0.0,93,0.00,,,0.00,WUHU216DAVISVP2,2013-10-05 03:07:00,
2013-10-04 20:08:00,51.7,49.7,30.32,WSW,258,0.0,0.0,93,0.00,,,0.00,WUHU216DAVISVP2,2013-10-05 03:08:00,
2013-10-04 20:09:00,51.6,49.6,30.32,WSW,258,0.0,0.0,93,0.00,,,0.00,WUHU216DAVISVP2,2013-10-05 03:09:00,
2013-10-04 20:11:00,51.4,49.4,30.32,WSW,257,0.0,0.0,93,0.00,,,0.00,WUHU216DAVISVP2,2013-10-05 03:11:00,
2013-10-04 20:12:00,51.4,49.4,30.32,WSW,258,0.0,0.0,93,0.00,,,0.00,WUHU216DAVISVP2,2013-10-05 03:12:00,
2013-10-04 20:14:00,51.2,48.9,30.32,WSW,257,0.0,0.0,92,0.00,,,0.00,WUHU216DAVISVP2,2013-10-05 03:14:00,
2013-10-04 20:17:00,51.0,48.7,30.32,WSW,257,0.0,0.0,92,0.00,,,0.00,WUHU216DAVISVP2,2013-10-05 03:17:00,
2013-10-04 20:19:00,50.8,48.8,30.32,WSW,257,0.0,0.0,93,0.00,,,0.00,WUHU216DAVISVP2,2013-10-05 03:19:00,
2013-10-04 20:20:00,50.7,48.7,30.32,WSW,257,0.0,0.0,93,0.00,,,0.00,WUHU216DAVISVP2,2013-10-05 03:20:00,
2013-10-04 20:22:00,50.6,48.6,30.32,WSW,257,0.0,0.0,93,0.00,,,0.00,WUHU216DAVISVP2,2013-10-05 03:22:00,
2013-10-04 20:23:00,50.6,48.6,30.32,WSW,258,0.0,0.0,93,0.00,,,0.00,WUHU216DAVISVP2,2013-10-05 03:23:00,
2013-10-04 20:24:00,50.5,48.8,30.32,WSW,257,0.0,0.0,94,0.00,,,0.00,WUHU216DAVISVP2,2013-10-05 03:24:00,
2013-10-04 20:25:00,50.5,48.8,30.32,WSW,257,0.0,0.0,94,0.00,,,0.00,WUHU216DAVISVP2,2013-10-05 03:25:00,
2013-10-04 20:27:00,50.5,48.8,30.32,WSW,258,0.0,0.0,94,0.00,,,0.00,WUHU216DAVISVP2,2013-10-05 03:27:00,
2013-10-04 20:28:00,50.4,48.7,30.32,WSW,258,0.0,0.0,94,0.00,,,0.00,WUHU216DAVISVP2,2013-10-05 03:28:00,
2013-10-04 20:30:00,50.4,48.7,30.32,WSW,258,0.0,0.0,94,0.00,,,0.00,WUHU216DAVISVP2,2013-10-05 03:30:00,
2013-10-04 20:31:00,50.3,48.6,30.32,WSW,258,0.0,0.0,94,0.00,,,0.00,WUHU216DAVISVP2,2013-10-05 03:31:00,
2013-10-04 20:32:00,50.3,48.6,30.32,WSW,258,0.0,0.0,94,0.00,,,0.00,WUHU216DAVISVP2,2013-10-05 03:32:00,
2013-10-04 20:33:00,50.2,48.5,30.32,WSW,258,0.0,0.0,94,0.00,,,0.00,WUHU216DAVISVP2,2013-10-05 03:33:00,
2013-10-04 20:35:00,50.1,48.4,30.32,WSW,257,0.0,0.0,94,0.00,,,0.00,WUHU216DAVISVP2,2013-10-05 03:35:00,
2013-10-04 20:36:00,50.1,48.4,30.32,WSW,258,0.0,0.0,94,0.00,,,0.00,WUHU216DAVISVP2,2013-10-05 03:36:00,
2013-10-04 20:37:00,50.0,48.3,30.32,WSW,258,0.0,0.0,94,0.00,,,0.00,WUHU216DAVISVP2,2013-10-05 03:37:00,
2013-10-04 20:39:00,50.0,48.3,30.32,WSW,258,0.0,0.0,94,0.00,,,0.00,WUHU216DAVISVP2,2013-10-05 03:39:00,
2013-10-04 20:40:00,49.9,48.2,30.32,WSW,258,0.0,0.0,94,0.00,,,0.00,WUHU216DAVISVP2,2013-10-05 03:40:00,
2013-10-04 20:41:00,49.8,48.1,30.32,WSW,258,0.0,0.0,94,0.00,,,0.00,WUHU216DAVISVP2,2013-10-05 03:41:00,
2013-10-04 20:42:00,49.7,48.0,30.32,WSW,257,0.0,0.0,94,0.00,,,0.00,WUHU216DAVISVP2,2013-10-05 03:42:00,
2013-10-04 20:43:00,49.7,48.0,30.32,WSW,258,0.0,0.0,94,0.00,,,0.00,WUHU216DAVISVP2,2013-10-05 03:43:00,
2013-10-04 20:44:00,49.6,47.9,30.32,WSW,258,0.0,0.0,94,0.00,,,0.00,WUHU216DAVISVP2,2013-10-05 03:44:00,
2013-10-04 20:46:00,49.5,47.8,30.32,WSW,258,0.0,0.0,94,0.00,,,0.00,WUHU216DAVISVP2,2013-10-05 03:46:00,
2013-10-04 20:47:00,49.4,47.7,30.32,WSW,257,0.0,0.0,94,0.00,,,0.00,WUHU216DAVISVP2,2013-10-05 03:47:00,
2013-10-04 20:48:00,49.4,47.7,30.32,WSW,258,0.0,0.0,94,0.00,,,0.00,WUHU216DAVISVP2,2013-10-05 03:48:00,
2013-10-04 20:49:00,49.3,47.6,30.32,WSW,257,0.0,0.0,94,0.00,,,0.00,WUHU216DAVISVP2,2013-10-05 03:49:00,
2013-10-04 20:51:00,49.2,47.5,30.32,WSW,258,0.0,0.0,94,0.00,,,0.00,WUHU216DAVISVP2,2013-10-05 03:51:00,
2013-10-04 20:52:00,49.2,47.8,30.32,WSW,257,0.0,0.0,95,0.00,,,0.00,WUHU216DAVISVP2,2013-10-05 03:52:00,
2013-10-04 20:53:00,49.1,47.7,30.32,WSW,258,0.0,0.0,95,0.00,,,0.00,WUHU216DAVISVP2,2013-10-05 03:53:00,
2013-10-04 20:54:00,49.1,47.7,30.32,WSW,258,0.0,0.0,95,0.00,,,0.00,WUHU216DAVISVP2,2013-10-05 03:54:00,
2013-10-04 20:56:00,48.9,47.5,30.32,WSW,257,0.0,0.0,95,0.00,,,0.00,WUHU216DAVISVP2,2013-10-05 03:56:00,
2013-10-04 20:58:00,48.9,47.2,30.32,WSW,258,0.0,0.0,94,0.00,,,0.00,WUHU216DAVISVP2,2013-10-05 03:58:00,
2013-10-04 20:59:00,48.8,47.2,30.32,WSW,258,0.0,0.0,94,0.00,,,0.00,WUHU216DAVISVP2,2013-10-05 03:59:00,
2013-10-04 21:01:00,48.7,47.0,30.32,WSW,257,0.0,0.0,94,0.00,,,0.00,WUHU216DAVISVP2,2013-10-05 04:01:00,
2013-10-04 21:02:00,48.6,46.9,30.32,WSW,258,0.0,0.0,94,0.00,,,0.00,WUHU216DAVISVP2,2013-10-05 04:02:00,
2013-10-04 21:06:00,48.3,46.7,30.32,WSW,258,0.0,0.0,94,0.00,,,0.00,WUHU216DAVISVP2,2013-10-05 04:06:00,
2013-10-04 21:07:00,48.2,46.6,30.32,WSW,258,0.0,0.0,94,0.00,,,0.00,WUHU216DAVISVP2,2013-10-05 04:07:00,
2013-10-04 21:11:00,48.0,46.6,30.32,WSW,258,0.0,0.0,95,0.00,,,0.00,WUHU216DAVISVP2,2013-10-05 04:11:00,
2013-10-04 21:12:00,48.0,46.6,30.32,WSW,258,0.0,0.0,95,0.00,,,0.00,WUHU216DAVISVP2,2013-10-05 04:12:00,
2013-10-04 21:13:00,48.0,46.6,30.32,WSW,257,0.0,0.0,95,0.00,,,0.00,WUHU216DAVISVP2,2013-10-05 04:13:00,
2013-10-04 21:16:00,47.9,46.8,30.32,WSW,258,0.0,0.0,96,0.00,,,0.00,WUHU216DAVISVP2,2013-10-05 04:16:00,
2013-10-04 21:17:00,47.9,46.8,30.32,WSW,258,0.0,0.0,96,0.00,,,0.00,WUHU216DAVISVP2,2013-10-05 04:17:00,
2013-10-04 21:19:00,48.0,46.9,30.32,WSW,258,0.0,0.0,96,0.00,,,0.00,WUHU216DAVISVP2,2013-10-05 04:19:00,
2013-10-04 21:21:00,48.1,47.3,30.32,WSW,258,0.0,0.0,97,0.00,,,0.00,WUHU216DAVISVP2,2013-10-05 04:21:00,
2013-10-04 21:22:00,48.2,47.4,30.32,WSW,258,0.0,0.0,97,0.00,,,0.00,WUHU216DAVISVP2,2013-10-05 04:22:00,
2013-10-04 21:23:00,48.3,47.5,30.32,WSW,257,0.0,0.0,97,0.00,,,0.00,WUHU216DAVISVP2,2013-10-05 04:23:00,
2013-10-04 21:24:00,48.4,47.6,30.32,WSW,257,0.0,0.0,97,0.00,,,0.00,WUHU216DAVISVP2,2013-10-05 04:24:00,
2013-10-04 21:26:00,48.5,47.7,30.32,WSW,258,0.0,0.0,97,0.00,,,0.00,WUHU216DAVISVP2,2013-10-05 04:26:00,
2013-10-04 21:27:00,48.5,47.7,30.33,WSW,258,0.0,0.0,97,0.00,,,0.00,WUHU216DAVISVP2,2013-10-05 04:27:00,
2013-10-04 21:28:00,48.5,47.7,30.33,WSW,258,0.0,0.0,97,0.00,,,0.00,WUHU216DAVISVP2,2013-10-05 04:28:00,
2013-10-04 21:29:00,48.5,47.7,30.33,WSW,258,0.0,0.0,97,0.00,,,0.00,WUHU216DAVISVP2,2013-10-05 04:29:00,
2013-10-04 21:31:00,48.6,47.8,30.33,WSW,258,0.0,0.0,97,0.00,,,0.00,WUHU216DAVISVP2,2013-10-05 04:31:00,
2013-10-04 21:32:00,48.6,47.8,30.33,WSW,258,0.0,0.0,97,0.00,,,0.00,WUHU216DAVISVP2,2013-10-05 04:32:00,
2013-10-04 21:33:00,48.6,47.8,30.32,WSW,258,0.0,0.0,97,0.00,,,0.00,WUHU216DAVISVP2,2013-10-05 04:33:00,
2013-10-04 21:35:00,48.5,47.4,30.32,WSW,257,0.0,0.0,96,0.00,,,0.00,WUHU216DAVISVP2,2013-10-05 04:35:00,
2013-10-04 21:36:00,48.4,47.3,30.32,WSW,258,0.0,0.0,96,0.00,,,0.00,WUHU216DAVISVP2,2013-10-05 04:36:00,
2013-10-04 21:37:00,48.4,47.3,30.32,WSW,257,0.0,0.0,96,0.00,,,0.00,WUHU216DAVISVP2,2013-10-05 04:37:00,
2013-10-04 21:38:00,48.4,47.3,30.32,WSW,258,0.0,0.0,96,0.00,,,0.00,WUHU216DAVISVP2,2013-10-05 04:38:00,
2013-10-04 21:40:00,48.3,47.2,30.32,WSW,258,0.0,0.0,96,0.00,,,0.00,WUHU216DAVISVP2,2013-10-05 04:40:00,
2013-10-04 21:41:00,48.2,47.1,30.32,WSW,257,0.0,0.0,96,0.00,,,0.00,WUHU216DAVISVP2,2013-10-05 04:41:00,
2013-10-04 21:42:00,48.2,47.1,30.32,WSW,257,0.0,0.0,96,0.00,,,0.00,WUHU216DAVISVP2,2013-10-05 04:42:00,
2013-10-04 21:43:00,48.1,47.0,30.32,WSW,258,0.0,0.0,96,0.00,,,0.00,WUHU216DAVISVP2,2013-10-05 04:43:00,
2013-10-04 21:44:00,48.1,47.0,30.32,WSW,257,0.0,0.0,96,0.00,,,0.00,WUHU216DAVISVP2,2013-10-05 04:44:00,
2013-10-04 21:46:00,48.0,46.9,30.32,WSW,258,0.0,0.0,96,0.00,,,0.00,WUHU216DAVISVP2,2013-10-05 04:46:00,
2013-10-04 21:47:00,48.0,46.9,30.32,WSW,257,0.0,0.0,96,0.00,,,0.00,WUHU216DAVISVP2,2013-10-05 04:47:00,
2013-10-04 21:48:00,47.9,46.8,30.32,WSW,258,0.0,0.0,96,0.00,,,0.00,WUHU216DAVISVP2,2013-10-05 04:48:00,
2013-10-04 21:50:00,48.0,47.2,30.32,WSW,258,0.0,0.0,97,0.00,,,0.00,WUHU216DAVISVP2,2013-10-05 04:50:00,
2013-10-04 21:51:00,48.0,47.2,30.32,WSW,258,0.0,0.0,97,0.00,,,0.00,WUHU216DAVISVP2,2013-10-05 04:51:00,
2013-10-04 21:52:00,48.0,47.2,30.32,WSW,258,0.0,0.0,97,0.00,,,0.00,WUHU216DAVISVP2,2013-10-05 04:52:00,
2013-10-04 21:53:00,48.1,47.3,30.32,WSW,258,0.0,0.0,97,0.00,,,0.00,WUHU216DAVISVP2,2013-10-05 04:53:00,
2013-10-04 21:55:00,48.2,47.4,30.32,WSW,258,0.0,0.0,97,0.00,,,0.00,WUHU216DAVISVP2,2013-10-05 04:55:00,
2013-10-04 21:56:00,48.2,47.4,30.32,WSW,258,0.0,0.0,97,0.00,,,0.00,WUHU216DAVISVP2,2013-10-05 04:56:00,
2013-10-04 21:57:00,48.2,47.4,30.32,WSW,258,0.0,0.0,97,0.00,,,0.00,WUHU216DAVISVP2,2013-10-05 04:57:00,
2013-10-04 21:58:00,48.2,47.4,30.32,WSW,258,0.0,0.0,97,0.00,,,0.00,WUHU216DAVISVP2,2013-10-05 04:58:00,
2013-10-04 22:00:00,48.3,47.5,30.32,WSW,258,0.0,0.0,97,0.00,,,0.00,WUHU216DAVISVP2,2013-10-05 05:00:00,
2013-10-04 22:01:00,48.3,47.5,30.32,WSW,258,0.0,0.0,97,0.00,,,0.00,WUHU216DAVISVP2,2013-10-05 05:01:00,
2013-10-04 22:02:00,48.3,47.5,30.32,WSW,258,0.0,0.0,97,0.00,,,0.00,WUHU216DAVISVP2,2013-10-05 05:02:00,
2013-10-04 22:03:00,48.3,47.5,30.32,WSW,258,0.0,0.0,97,0.00,,,0.00,WUHU216DAVISVP2,2013-10-05 05:03:00,
2013-10-04 22:04:00,48.3,47.5,30.32,WSW,258,0.0,0.0,97,0.00,,,0.00,WUHU216DAVISVP2,2013-10-05 05:04:00,
2013-10-04 22:05:00,48.3,47.5,30.32,WSW,258,0.0,0.0,97,0.00,,,0.00,WUHU216DAVISVP2,2013-10-05 05:05:00,
2013-10-04 22:06:00,48.2,47.4,30.32,WSW,258,0.0,0.0,97,0.00,,,0.00,WUHU216DAVISVP2,2013-10-05 05:06:00,
2013-10-04 22:07:00,48.3,47.5,30.32,WSW,258,0.0,0.0,97,0.00,,,0.00,WUHU216DAVISVP2,2013-10-05 05:07:00,
2013-10-04 22:09:00,48.3,47.5,30.32,WSW,258,0.0,0.0,97,0.00,,,0.00,WUHU216DAVISVP2,2013-10-05 05:09:00,
2013-10-04 22:11:00,48.3,47.5,30.32,NNE,24,0.0,0.0,97,0.00,,,0.00,WUHU216DAVISVP2,2013-10-05 05:11:00,
2013-10-04 22:12:00,48.3,47.5,30.32,NNE,24,0.0,0.0,97,0.00,,,0.00,WUHU216DAVISVP2,2013-10-05 05:12:00,
2013-10-04 22:14:00,48.5,47.7,30.32,NNE,23,0.0,0.0,97,0.00,,,0.00,WUHU216DAVISVP2,2013-10-05 05:14:00,
2013-10-04 22:16:00,48.5,47.7,30.32,NNE,23,0.0,0.0,97,0.00,,,0.00,WUHU216DAVISVP2,2013-10-05 05:16:00,
2013-10-04 22:17:00,48.5,47.7,30.32,NNE,23,0.0,0.0,97,0.00,,,0.00,WUHU216DAVISVP2,2013-10-05 05:17:00,
2013-10-04 22:19:00,48.5,47.7,30.32,NNE,23,0.0,0.0,97,0.00,,,0.00,WUHU216DAVISVP2,2013-10-05 05:19:00,
2013-10-04 22:22:00,48.4,47.6,30.32,NNE,23,0.0,0.0,97,0.00,,,0.00,WUHU216DAVISVP2,2013-10-05 05:22:00,
2013-10-04 22:23:00,48.4,47.6,30.32,NNE,23,0.0,0.0,97,0.00,,,0.00,WUHU216DAVISVP2,2013-10-05 05:23:00,
2013-10-04 22:25:00,48.3,47.5,30.32,NNE,23,0.0,0.0,97,0.00,,,0.00,WUHU216DAVISVP2,2013-10-05 05:25:00,
2013-10-04 22:27:00,48.3,47.5,30.32,NNE,20,0.0,0.0,97,0.00,,,0.00,WUHU216DAVISVP2,2013-10-05 05:27:00,
2013-10-04 22:28:00,48.2,47.4,30.32,NNE,20,0.0,0.0,97,0.00,,,0.00,WUHU216DAVISVP2,2013-10-05 05:28:00,
2013-10-04 22:30:00,48.1,47.3,30.32,NNE,20,0.0,0.0,97,0.00,,,0.00,WUHU216DAVISVP2,2013-10-05 05:30:00,
2013-10-04 22:32:00,48.3,47.5,30.32,NNE,20,0.0,0.0,97,0.00,,,0.00,WUHU216DAVISVP2,2013-10-05 05:32:00,
2013-10-04 22:33:00,48.3,47.5,30.32,NNE,20,0.0,0.0,97,0.00,,,0.00,WUHU216DAVISVP2,2013-10-05 05:33:00,
2013-10-04 22:35:00,48.5,47.7,30.32,NE,39,0.0,0.0,97,0.00,,,0.00,WUHU216DAVISVP2,2013-10-05 05:35:00,
2013-10-04 22:36:00,48.6,47.8,30.32,NE,39,0.0,0.0,97,0.00,,,0.00,WUHU216DAVISVP2,2013-10-05 05:36:00,
2013-10-04 22:37:00,48.6,47.8,30.32,NE,39,0.0,0.0,97,0.00,,,0.00,WUHU216DAVISVP2,2013-10-05 05:37:00,
2013-10-04 22:38:00,48.6,47.8,30.32,NE,39,0.0,0.0,97,0.00,,,0.00,WUHU216DAVISVP2,2013-10-05 05:38:00,
2013-10-04 22:40:00,48.7,47.9,30.32,NE,53,0.0,0.0,97,0.00,,,0.00,WUHU216DAVISVP2,2013-10-05 05:40:00,
2013-10-04 22:42:00,48.7,47.9,30.32,NE,51,0.0,0.0,97,0.00,,,0.00,WUHU216DAVISVP2,2013-10-05 05:42:00,
2013-10-04 22:43:00,48.8,48.0,30.32,NE,51,0.0,0.0,97,0.00,,,0.00,WUHU216DAVISVP2,2013-10-05 05:43:00,
2013-10-04 22:45:00,48.8,47.7,30.32,NE,51,0.0,0.0,96,0.00,,,0.00,WUHU216DAVISVP2,2013-10-05 05:45:00,
2013-10-04 22:47:00,48.9,47.8,30.32,NE,51,0.0,0.0,96,0.00,,,0.00,WUHU216DAVISVP2,2013-10-05 05:47:00,
2013-10-04 22:48:00,48.9,47.8,30.32,NE,51,0.0,0.0,96,0.00,,,0.00,WUHU216DAVISVP2,2013-10-05 05:48:00,
2013-10-04 22:50:00,48.9,47.8,30.32,NE,51,0.0,0.0,96,0.00,,,0.00,WUHU216DAVISVP2,2013-10-05 05:50:00,
2013-10-04 22:52:00,48.9,47.8,30.32,NE,51,0.0,0.0,96,0.00,,,0.00,WUHU216DAVISVP2,2013-10-05 05:52:00,
2013-10-04 22:53:00,48.9,47.8,30.32,NE,51,0.0,0.0,96,0.00,,,0.00,WUHU216DAVISVP2,2013-10-05 05:53:00,
2013-10-04 22:56:00,48.9,47.8,30.32,NE,51,0.0,0.0,96,0.00,,,0.00,WUHU216DAVISVP2,2013-10-05 05:56:00,
2013-10-04 22:57:00,48.9,47.8,30.32,NE,51,0.0,0.0,96,0.00,,,0.00,WUHU216DAVISVP2,2013-10-05 05:57:00,
2013-10-04 22:58:00,48.9,47.8,30.32,NE,51,0.0,0.0,96,0.00,,,0.00,WUHU216DAVISVP2,2013-10-05 05:58:00,
2013-10-04 22:59:00,49.0,47.9,30.32,NE,51,0.0,0.0,96,0.00,,,0.00,WUHU216DAVISVP2,2013-10-05 05:59:00,
2013-10-04 23:01:00,48.9,47.5,30.32,NE,51,0.0,0.0,95,0.00,,,0.00,WUHU216DAVISVP2,2013-10-05 06:01:00,
2013-10-04 23:02:00,48.9,47.5,30.32,NE,51,0.0,0.0,95,0.00,,,0.00,WUHU216DAVISVP2,2013-10-05 06:02:00,
2013-10-04 23:03:00,48.9,47.5,30.32,NE,51,0.0,0.0,95,0.00,,,0.00,WUHU216DAVISVP2,2013-10-05 06:03:00,
2013-10-04 23:04:00,48.9,47.5,30.32,NE,51,0.0,0.0,95,0.00,,,0.00,WUHU216DAVISVP2,2013-10-05 06:04:00,
2013-10-04 23:06:00,48.8,47.4,30.32,NE,51,0.0,0.0,95,0.00,,,0.00,WUHU216DAVISVP2,2013-10-05 06:06:00,
2013-10-04 23:07:00,48.8,47.4,30.32,NE,51,0.0,0.0,95,0.00,,,0.00,WUHU216DAVISVP2,2013-10-05 06:07:00,
2013-10-04 23:09:00,48.7,47.3,30.32,NE,51,0.0,0.0,95,0.00,,,0.00,WUHU216DAVISVP2,2013-10-05 06:09:00,
2013-10-04 23:11:00,48.5,47.1,30.32,NE,51,0.0,0.0,95,0.00,,,0.00,WUHU216DAVISVP2,2013-10-05 06:11:00,
2013-10-04 23:13:00,48.5,47.1,30.32,NE,51,0.0,0.0,95,0.00,,,0.00,WUHU216DAVISVP2,2013-10-05 06:13:00,
2013-10-04 23:14:00,48.4,47.0,30.32,NE,51,0.0,0.0,95,0.00,,,0.00,WUHU216DAVISVP2,2013-10-05 06:14:00,
2013-10-04 23:17:00,48.3,46.9,30.32,NE,51,0.0,0.0,95,0.00,,,0.00,WUHU216DAVISVP2,2013-10-05 06:17:00,
2013-10-04 23:18:00,48.2,46.8,30.32,NE,51,0.0,0.0,95,0.00,,,0.00,WUHU216DAVISVP2,2013-10-05 06:18:00,
2013-10-04 23:19:00,48.2,46.8,30.32,NE,51,0.0,0.0,95,0.00,,,0.00,WUHU216DAVISVP2,2013-10-05 06:19:00,
2013-10-04 23:22:00,48.2,47.1,30.32,NE,51,0.0,0.0,96,0.00,,,0.00,WUHU216DAVISVP2,2013-10-05 06:22:00,
2013-10-04 23:24:00,48.2,47.1,30.32,NE,51,0.0,0.0,96,0.00,,,0.00,WUHU216DAVISVP2,2013-10-05 06:24:00,
2013-10-04 23:25:00,48.2,47.1,30.31,NE,51,0.0,0.0,96,0.00,,,0.00,WUHU216DAVISVP2,2013-10-05 06:25:00,
2013-10-04 23:27:00,48.1,47.0,30.32,NE,51,0.0,0.0,96,0.00,,,0.00,WUHU216DAVISVP2,2013-10-05 06:27:00,
2013-10-04 23:29:00,48.1,47.0,30.31,NE,51,0.0,0.0,96,0.00,,,0.00,WUHU216DAVISVP2,2013-10-05 06:29:00,
2013-10-04 23:30:00,48.1,47.0,30.32,NE,51,0.0,0.0,96,0.00,,,0.00,WUHU216DAVISVP2,2013-10-05 06:30:00,
2013-10-04 23:31:00,48.1,47.0,30.32,NE,51,0.0,0.0,96,0.00,,,0.00,WUHU216DAVISVP2,2013-10-05 06:31:00,
2013-10-04 23:34:00,48.1,47.0,30.32,NE,51,0.0,0.0,96,0.00,,,0.00,WUHU216DAVISVP2,2013-10-05 06:34:00,
2013-10-04 23:35:00,48.1,47.0,30.32,NE,51,0.0,0.0,96,0.00,,,0.00,WUHU216DAVISVP2,2013-10-05 06:35:00,
2013-10-04 23:36:00,48.1,47.0,30.32,NE,51,0.0,0.0,96,0.00,,,0.00,WUHU216DAVISVP2,2013-10-05 06:36:00,
2013-10-04 23:39:00,48.1,47.0,30.32,NE,51,0.0,0.0,96,0.00,,,0.00,WUHU216DAVISVP2,2013-10-05 06:39:00,
2013-10-04 23:40:00,48.1,47.0,30.31,NE,51,0.0,0.0,96,0.00,,,0.00,WUHU216DAVISVP2,2013-10-05 06:40:00,
2013-10-04 23:41:00,48.1,47.0,30.32,NE,51,0.0,0.0,96,0.00,,,0.00,WUHU216DAVISVP2,2013-10-05 06:41:00,
2013-10-04 23:44:00,48.0,46.6,30.31,NE,51,0.0,0.0,95,0.00,,,0.00,WUHU216DAVISVP2,2013-10-05 06:44:00,
2013-10-04 23:45:00,48.0,46.6,30.31,NE,51,0.0,0.0,95,0.00,,,0.00,WUHU216DAVISVP2,2013-10-05 06:45:00,
2013-10-04 23:47:00,48.0,46.6,30.32,NE,51,0.0,0.0,95,0.00,,,0.00,WUHU216DAVISVP2,2013-10-05 06:47:00,
2013-10-04 23:49:00,47.9,46.8,30.31,NE,51,0.0,0.0,96,0.00,,,0.00,WUHU216DAVISVP2,2013-10-05 06:49:00,
2013-10-04 23:50:00,47.9,46.8,30.31,NE,51,0.0,0.0,96,0.00,,,0.00,WUHU216DAVISVP2,2013-10-05 06:50:00,
2013-10-04 23:51:00,47.9,46.8,30.31,NE,51,0.0,0.0,96,0.00,,,0.00,WUHU216DAVISVP2,2013-10-05 06:51:00,
2013-10-04 23:52:00,47.8,46.7,30.31,NE,51,0.0,0.0,96,0.00,,,0.00,WUHU216DAVISVP2,2013-10-05 06:52:00,
2013-10-04 23:53:00,47.8,46.7,30.31,NE,51,0.0,0.0,96,0.00,,,0.00,WUHU216DAVISVP2,2013-10-05 06:53:00,
2013-10-04 23:54:00,47.8,46.7,30.31,NE,51,0.0,0.0,96,0.00,,,0.00,WUHU216DAVISVP2,2013-10-05 06:54:00,
2013-10-04 23:55:00,47.7,46.6,30.31,NE,51,0.0,0.0,96,0.00,,,0.00,WUHU216DAVISVP2,2013-10-05 06:55:00,
2013-10-04 23:56:00,47.7,46.6,30.31,NE,51,0.0,0.0,96,0.00,,,0.00,WUHU216DAVISVP2,2013-10-05 06:56:00,
2013-10-04 23:57:00,47.7,46.6,30.31,NE,51,0.0,0.0,96,0.00,,,0.00,WUHU216DAVISVP2,2013-10-05 06:57:00,
2013-10-04 23:58:00,47.7,46.6,30.31,NE,51,0.0,0.0,96,0.00,,,0.00,WUHU216DAVISVP2,2013-10-05 06:58:00,
2013-10-04 23:59:00,47.7,46.6,30.31,NE,51,0.0,0.0,96,0.00,,,0.00,WUHU216DAVISVP2,2013-10-05 06:59:00,